Wetterdaten: Mittwoch, 15.12.2021
Datum Zeit Temp. Aussen Temp. o. S. Temp +5cm Feuchte Auss Luftdruck Regen Sonnenschein Regendauer Solar Windben Empfang
15.12.2021 00:00 8,7 C 8,3 C 6,1 C 94 % 1029,9 hPa 0,0 l/m 0 min 0 min 0 W/m 6,4 km/h (2 Bft) 95,74 %
15.12.2021 00:02 8,7 C 8,3 C 6,1 C 94 % 1029,8 hPa 0,0 l/m 0 min 0 min 0 W/m 16,1 km/h (3 Bft) 97,44 %
15.12.2021 00:04 8,8 C 8,3 C 6,1 C 94 % 1029,8 hPa 0,0 l/m 0 min 0 min 0 W/m 12,9 km/h (3 Bft) 97,87 %
15.12.2021 00:07 8,8 C 8,3 C 6,7 C 94 % 1029,9 hPa 0,0 l/m 0 min 0 min 0 W/m 12,9 km/h (3 Bft) 95,71 %
15.12.2021 00:08 8,8 C 8,3 C 6,7 C 94 % 1029,9 hPa 0,0 l/m 0 min 0 min 0 W/m 12,9 km/h (3 Bft) 100,00 %
15.12.2021 00:10 8,8 C 8,3 C 6,7 C 94 % 1029,9 hPa 0,0 l/m 0 min 0 min 0 W/m 6,4 km/h (2 Bft) 97,87 %
15.12.2021 00:12 8,8 C 8,3 C 6,7 C 94 % 1029,9 hPa 0,0 l/m 0 min 0 min 0 W/m 6,4 km/h (2 Bft) 95,74 %
15.12.2021 00:14 8,8 C 8,3 C 6,7 C 94 % 1029,9 hPa 0,0 l/m 0 min 0 min 0 W/m 6,4 km/h (2 Bft) 97,87 %
15.12.2021 00:16 8,8 C 8,3 C 6,7 C 94 % 1029,9 hPa 0,0 l/m 0 min 0 min 0 W/m 6,4 km/h (2 Bft) 95,74 %
15.12.2021 00:18 8,8 C 8,3 C 6,1 C 94 % 1029,9 hPa 0,0 l/m 0 min 0 min 0 W/m 6,4 km/h (2 Bft) 95,74 %
15.12.2021 00:20 8,8 C 8,3 C 6,1 C 94 % 1029,9 hPa 0,0 l/m 0 min 0 min 0 W/m 19,3 km/h (3 Bft) 95,65 %
15.12.2021 00:22 8,8 C 8,3 C 6,1 C 94 % 1030,0 hPa 0,0 l/m 0 min 0 min 0 W/m 12,9 km/h (3 Bft) 97,87 %
15.12.2021 00:24 8,8 C 8,3 C 6,7 C 94 % 1030,0 hPa 0,0 l/m 0 min 0 min 0 W/m 19,3 km/h (3 Bft) 95,74 %
15.12.2021 00:26 8,8 C 8,3 C 6,7 C 94 % 1030,0 hPa 0,0 l/m 0 min 0 min 0 W/m 16,1 km/h (3 Bft) 93,62 %
15.12.2021 00:28 8,8 C 8,3 C 6,1 C 94 % 1030,0 hPa 0,0 l/m 0 min 0 min 0 W/m 12,9 km/h (3 Bft) 97,87 %
15.12.2021 00:30 8,8 C 8,3 C 6,1 C 94 % 1030,0 hPa 0,0 l/m 0 min 0 min 0 W/m 9,7 km/h (2 Bft) 97,87 %
15.12.2021 00:32 8,8 C 8,3 C 6,1 C 94 % 1030,0 hPa 0,0 l/m 0 min 0 min 0 W/m 9,7 km/h (2 Bft) 97,83 %
15.12.2021 00:34 8,8 C 8,3 C 6,1 C 93 % 1030,0 hPa 0,0 l/m 0 min 0 min 0 W/m 12,9 km/h (3 Bft) 95,74 %
15.12.2021 00:36 8,8 C 8,3 C 6,1 C 93 % 1029,9 hPa 0,0 l/m 0 min 0 min 0 W/m 9,7 km/h (2 Bft) 97,87 %
15.12.2021 00:38 8,8 C 8,3 C 6,1 C 93 % 1030,0 hPa 0,0 l/m 0 min 0 min 0 W/m 12,9 km/h (3 Bft) 93,62 %
15.12.2021 00:40 8,8 C 8,3 C 6,1 C 93 % 1030,0 hPa 0,0 l/m 0 min 0 min 0 W/m 9,7 km/h (2 Bft) 97,87 %
15.12.2021 00:42 8,8 C 8,3 C 6,1 C 93 % 1030,0 hPa 0,0 l/m 0 min 0 min 0 W/m 12,9 km/h (3 Bft) 97,87 %
15.12.2021 00:44 8,8 C 8,3 C 6,1 C 93 % 1030,0 hPa 0,0 l/m 0 min 0 min 0 W/m 9,7 km/h (2 Bft) 95,65 %
15.12.2021 00:46 8,8 C 8,3 C 6,1 C 93 % 1030,0 hPa 0,0 l/m 0 min 0 min 0 W/m 19,3 km/h (3 Bft) 97,87 %
15.12.2021 00:48 8,8 C 8,3 C 6,1 C 93 % 1030,0 hPa 0,0 l/m 0 min 0 min 0 W/m 12,9 km/h (3 Bft) 95,74 %
15.12.2021 00:50 8,8 C 8,3 C 6,1 C 93 % 1030,0 hPa 0,0 l/m 0 min 0 min 0 W/m 9,7 km/h (2 Bft) 97,87 %
15.12.2021 00:52 8,8 C 8,3 C 6,1 C 93 % 1030,0 hPa 0,0 l/m 0 min 0 min 0 W/m 12,9 km/h (3 Bft) 97,87 %
15.12.2021 00:54 8,8 C 8,3 C 6,1 C 93 % 1030,0 hPa 0,0 l/m 0 min 0 min 0 W/m 16,1 km/h (3 Bft) 95,74 %
15.12.2021 00:56 8,8 C 8,3 C 6,1 C 93 % 1029,9 hPa 0,0 l/m 0 min 0 min 0 W/m 12,9 km/h (3 Bft) 93,48 %
15.12.2021 00:58 8,8 C 8,3 C 6,1 C 93 % 1029,9 hPa 0,0 l/m 0 min 0 min 0 W/m 6,4 km/h (2 Bft) 93,62 %
15.12.2021 01:00 8,8 C 8,3 C 6,1 C 93 % 1029,9 hPa 0,0 l/m 0 min 0 min 0 W/m 16,1 km/h (3 Bft) 95,74 %
15.12.2021 01:02 8,8 C 8,3 C 6,1 C 93 % 1030,0 hPa 0,0 l/m 0 min 0 min 0 W/m 9,7 km/h (2 Bft) 95,74 %
15.12.2021 01:04 8,8 C 8,3 C 6,1 C 93 % 1030,0 hPa 0,0 l/m 0 min 0 min 0 W/m 6,4 km/h (2 Bft) 97,87 %
15.12.2021 01:06 8,8 C 8,3 C 6,1 C 93 % 1030,0 hPa 0,0 l/m 0 min 0 min 0 W/m 16,1 km/h (3 Bft) 97,83 %
15.12.2021 01:08 8,8 C 8,3 C 6,1 C 93 % 1029,9 hPa 0,0 l/m 0 min 0 min 0 W/m 12,9 km/h (3 Bft) 97,87 %
15.12.2021 01:10 8,8 C 8,3 C 6,1 C 93 % 1029,9 hPa 0,0 l/m 0 min 0 min 0 W/m 12,9 km/h (3 Bft) 95,74 %
15.12.2021 01:12 8,8 C 8,3 C 6,1 C 93 % 1030,0 hPa 0,0 l/m 0 min 0 min 0 W/m 12,9 km/h (3 Bft) 97,87 %
15.12.2021 01:14 8,9 C 8,3 C 6,1 C 93 % 1029,9 hPa 0,0 l/m 0 min 0 min 0 W/m 16,1 km/h (3 Bft) 97,87 %
15.12.2021 01:16 8,9 C 8,3 C 6,1 C 93 % 1029,9 hPa 0,0 l/m 0 min 0 min 0 W/m 12,9 km/h (3 Bft) 97,87 %
15.12.2021 01:18 8,9 C 8,3 C 6,1 C 93 % 1029,9 hPa 0,0 l/m 0 min 0 min 0 W/m 6,4 km/h (2 Bft) 97,83 %
15.12.2021 01:20 8,9 C 8,3 C 6,1 C 93 % 1029,9 hPa 0,0 l/m 0 min 0 min 0 W/m 12,9 km/h (3 Bft) 97,87 %
15.12.2021 01:22 8,9 C 8,3 C 6,1 C 93 % 1029,9 hPa 0,0 l/m 0 min 0 min 0 W/m 9,7 km/h (2 Bft) 97,87 %
15.12.2021 01:24 8,9 C 8,3 C 6,1 C 93 % 1029,9 hPa 0,0 l/m 0 min 0 min 0 W/m 3,2 km/h (1 Bft) 97,87 %
15.12.2021 01:26 8,9 C 8,3 C 6,1 C 93 % 1030,0 hPa 0,0 l/m 0 min 0 min 0 W/m 16,1 km/h (3 Bft) 95,74 %
15.12.2021 01:28 8,9 C 8,3 C 6,1 C 93 % 1029,9 hPa 0,0 l/m 0 min 0 min 0 W/m 6,4 km/h (2 Bft) 100,00 %
15.12.2021 01:30 8,9 C 8,3 C 6,1 C 92 % 1029,9 hPa 0,0 l/m 0 min 0 min 0 W/m 6,4 km/h (2 Bft) 100,00 %
15.12.2021 01:32 8,9 C 8,3 C 6,1 C 92 % 1030,0 hPa 0,0 l/m 0 min 0 min 0 W/m 6,4 km/h (2 Bft) 97,87 %
15.12.2021 01:34 8,9 C 8,3 C 6,1 C 92 % 1030,0 hPa 0,0 l/m 0 min 0 min 0 W/m 9,7 km/h (2 Bft) 97,87 %
15.12.2021 01:36 8,9 C 8,3 C 6,1 C 93 % 1030,0 hPa 0,0 l/m 0 min 0 min 0 W/m 6,4 km/h (2 Bft) 100,00 %
15.12.2021 01:38 8,9 C 8,3 C 6,1 C 93 % 1030,0 hPa 0,0 l/m 0 min 0 min 0 W/m 6,4 km/h (2 Bft) 100,00 %
15.12.2021 01:40 8,9 C 8,3 C 6,1 C 92 % 1030,0 hPa 0,0 l/m 0 min 0 min 0 W/m 6,4 km/h (2 Bft) 97,83 %
15.12.2021 01:42 8,9 C 8,3 C 6,1 C 92 % 1030,0 hPa 0,0 l/m 0 min 0 min 0 W/m 9,7 km/h (2 Bft) 100,00 %
15.12.2021 01:44 8,9 C 8,3 C 6,1 C 92 % 1030,1 hPa 0,0 l/m 0 min 0 min 0 W/m 12,9 km/h (3 Bft) 100,00 %
15.12.2021 01:46 8,9 C 8,3 C 6,1 C 92 % 1030,0 hPa 0,0 l/m 0 min 0 min 0 W/m 6,4 km/h (2 Bft) 100,00 %
15.12.2021 01:48 8,9 C 8,3 C 6,1 C 92 % 1030,1 hPa 0,0 l/m 0 min 0 min 0 W/m 3,2 km/h (1 Bft) 100,00 %
15.12.2021 01:50 8,9 C 8,3 C 6,1 C 92 % 1030,1 hPa 0,0 l/m 0 min 0 min 0 W/m 12,9 km/h (3 Bft) 100,00 %
15.12.2021 01:52 8,9 C 8,3 C 6,1 C 92 % 1030,1 hPa 0,0 l/m 0 min 0 min 0 W/m 3,2 km/h (1 Bft) 100,00 %
15.12.2021 01:54 8,9 C 8,3 C 6,1 C 92 % 1030,0 hPa 0,0 l/m 0 min 0 min 0 W/m 9,7 km/h (2 Bft) 97,87 %
15.12.2021 01:56 8,9 C 8,3 C 6,1 C 92 % 1030,1 hPa 0,0 l/m 0 min 0 min 0 W/m 9,7 km/h (2 Bft) 100,00 %
15.12.2021 01:58 8,9 C 8,3 C 6,1 C 92 % 1030,0 hPa 0,0 l/m 0 min 0 min 0 W/m 6,4 km/h (2 Bft) 100,00 %
15.12.2021 02:00 8,9 C 8,3 C 6,1 C 92 % 1030,0 hPa 0,0 l/m 0 min 0 min 0 W/m 6,4 km/h (2 Bft) 100,00 %
15.12.2021 02:02 8,9 C 8,3 C 6,1 C 92 % 1030,0 hPa 0,0 l/m 0 min 0 min 0 W/m 12,9 km/h (3 Bft) 100,00 %
15.12.2021 02:04 8,9 C 8,3 C 6,1 C 92 % 1030,0 hPa 0,0 l/m 0 min 0 min 0 W/m 12,9 km/h (3 Bft) 100,00 %
15.12.2021 02:06 8,9 C 8,3 C 6,1 C 93 % 1030,0 hPa 0,0 l/m 0 min 0 min 0 W/m 9,7 km/h (2 Bft) 100,00 %
15.12.2021 02:08 8,9 C 8,3 C 6,1 C 92 % 1030,0 hPa 0,0 l/m 0 min 0 min 0 W/m 12,9 km/h (3 Bft) 100,00 %
15.12.2021 02:10 8,9 C 8,3 C 6,1 C 92 % 1030,1 hPa 0,0 l/m 0 min 0 min 0 W/m 9,7 km/h (2 Bft) 100,00 %
15.12.2021 02:12 8,9 C 8,3 C 6,1 C 92 % 1030,0 hPa 0,0 l/m 0 min 0 min 0 W/m 12,9 km/h (3 Bft) 100,00 %
15.12.2021 02:14 8,9 C 8,3 C 6,1 C 92 % 1030,1 hPa 0,0 l/m 0 min 0 min 0 W/m 9,7 km/h (2 Bft) 100,00 %
15.12.2021 02:16 8,9 C 8,3 C 6,1 C 93 % 1030,0 hPa 0,0 l/m 0 min 0 min 0 W/m 6,4 km/h (2 Bft) 97,83 %
15.12.2021 02:18 8,9 C 8,3 C 6,1 C 93 % 1030,1 hPa 0,0 l/m 0 min 0 min 0 W/m 12,9 km/h (3 Bft) 97,87 %
15.12.2021 02:20 8,9 C 8,3 C 6,1 C 93 % 1030,1 hPa 0,0 l/m 0 min 0 min 0 W/m 12,9 km/h (3 Bft) 100,00 %
15.12.2021 02:22 8,9 C 8,3 C 6,1 C 93 % 1030,0 hPa 0,0 l/m 0 min 0 min 0 W/m 9,7 km/h (2 Bft) 100,00 %
15.12.2021 02:24 8,9 C 8,3 C 6,1 C 93 % 1030,1 hPa 0,0 l/m 0 min 0 min 0 W/m 6,4 km/h (2 Bft) 100,00 %
15.12.2021 02:26 8,9 C 8,3 C 6,1 C 93 % 1030,1 hPa 0,0 l/m 0 min 0 min 0 W/m 12,9 km/h (3 Bft) 100,00 %
15.12.2021 02:28 8,9 C 8,3 C 6,1 C 93 % 1030,1 hPa 0,0 l/m 0 min 0 min 0 W/m 12,9 km/h (3 Bft) 100,00 %
15.12.2021 02:30 8,9 C 8,3 C 6,1 C 93 % 1030,0 hPa 0,0 l/m 0 min 0 min 0 W/m 16,1 km/h (3 Bft) 100,00 %
15.12.2021 02:32 8,9 C 8,3 C 6,1 C 93 % 1030,1 hPa 0,0 l/m 0 min 0 min 0 W/m 9,7 km/h (2 Bft) 95,74 %
15.12.2021 02:34 8,8 C 8,3 C 6,1 C 93 % 1030,1 hPa 0,0 l/m 0 min 0 min 0 W/m 12,9 km/h (3 Bft) 97,87 %
15.12.2021 02:36 8,8 C 8,3 C 6,1 C 93 % 1030,1 hPa 0,0 l/m 0 min 0 min 0 W/m 16,1 km/h (3 Bft) 97,87 %
15.12.2021 02:38 8,8 C 8,3 C 6,1 C 93 % 1030,2 hPa 0,0 l/m 0 min 0 min 0 W/m 12,9 km/h (3 Bft) 97,83 %
15.12.2021 02:40 8,8 C 8,3 C 6,1 C 93 % 1030,1 hPa 0,0 l/m 0 min 0 min 0 W/m 6,4 km/h (2 Bft) 97,87 %
15.12.2021 02:42 8,8 C 8,3 C 6,1 C 93 % 1030,1 hPa 0,0 l/m 0 min 0 min 0 W/m 16,1 km/h (3 Bft) 93,62 %
15.12.2021 02:44 8,8 C 8,3 C 6,1 C 93 % 1030,2 hPa 0,0 l/m 0 min 0 min 0 W/m 12,9 km/h (3 Bft) 97,87 %
15.12.2021 02:46 8,8 C 8,3 C 6,1 C 93 % 1030,1 hPa 0,0 l/m 0 min 0 min 0 W/m 12,9 km/h (3 Bft) 97,87 %
15.12.2021 02:48 8,9 C 8,3 C 6,1 C 93 % 1030,2 hPa 0,0 l/m 0 min 0 min 0 W/m 16,1 km/h (3 Bft) 95,74 %
15.12.2021 02:50 8,8 C 8,3 C 6,1 C 93 % 1030,2 hPa 0,0 l/m 0 min 0 min 0 W/m 12,9 km/h (3 Bft) 93,48 %
15.12.2021 02:52 8,9 C 8,3 C 6,1 C 94 % 1030,1 hPa 0,0 l/m 0 min 0 min 0 W/m 16,1 km/h (3 Bft) 93,62 %
15.12.2021 02:54 8,8 C 7,8 C 6,1 C 94 % 1030,1 hPa 0,0 l/m 0 min 0 min 0 W/m 12,9 km/h (3 Bft) 95,74 %
15.12.2021 02:56 8,8 C 7,8 C 6,1 C 94 % 1030,1 hPa 0,0 l/m 0 min 0 min 0 W/m 9,7 km/h (2 Bft) 95,74 %
15.12.2021 02:58 8,8 C 7,8 C 6,1 C 94 % 1030,1 hPa 0,0 l/m 0 min 0 min 0 W/m 12,9 km/h (3 Bft) 93,62 %
15.12.2021 03:00 8,8 C 7,8 C 6,1 C 94 % 1030,1 hPa 0,0 l/m 0 min 0 min 0 W/m 12,9 km/h (3 Bft) 93,62 %
15.12.2021 03:02 8,8 C 7,8 C 5,6 C 94 % 1030,1 hPa 0,0 l/m 0 min 0 min 0 W/m 9,7 km/h (2 Bft) 95,65 %
15.12.2021 03:04 8,8 C 7,8 C 5,6 C 94 % 1030,1 hPa 0,0 l/m 0 min 0 min 0 W/m 6,4 km/h (2 Bft) 93,62 %
15.12.2021 03:06 8,8 C 7,8 C 5,6 C 94 % 1030,1 hPa 0,0 l/m 0 min 0 min 0 W/m 9,7 km/h (2 Bft) 91,49 %
15.12.2021 03:08 8,8 C 7,8 C 5,6 C 94 % 1030,1 hPa 0,0 l/m 0 min 0 min 0 W/m 12,9 km/h (3 Bft) 93,62 %
15.12.2021 03:10 8,8 C 7,8 C 5,6 C 94 % 1030,1 hPa 0,0 l/m 0 min 0 min 0 W/m 12,9 km/h (3 Bft) 91,49 %
15.12.2021 03:12 8,8 C 7,8 C 5,6 C 95 % 1030,2 hPa 0,0 l/m 0 min 0 min 0 W/m 16,1 km/h (3 Bft) 93,62 %
15.12.2021 03:14 8,7 C 7,8 C 5,6 C 95 % 1030,1 hPa 0,0 l/m 0 min 0 min 0 W/m 6,4 km/h (2 Bft) 93,48 %
15.12.2021 03:16 8,7 C 7,8 C 5,6 C 95 % 1030,1 hPa 0,0 l/m 0 min 0 min 0 W/m 12,9 km/h (3 Bft) 91,49 %
15.12.2021 03:18 8,7 C 7,8 C 5,6 C 95 % 1030,1 hPa 0,0 l/m 0 min 0 min 0 W/m 9,7 km/h (2 Bft) 93,62 %
15.12.2021 03:20 8,7 C 7,8 C 5,6 C 95 % 1030,2 hPa 0,0 l/m 0 min 0 min 0 W/m 16,1 km/h (3 Bft) 95,74 %
15.12.2021 03:22 8,7 C 7,8 C 5,6 C 95 % 1030,2 hPa 0,0 l/m 0 min 0 min 0 W/m 12,9 km/h (3 Bft) 95,74 %
15.12.2021 03:24 8,6 C 7,8 C 5,6 C 95 % 1030,2 hPa 0,0 l/m 0 min 0 min 0 W/m 12,9 km/h (3 Bft) 93,62 %
15.12.2021 03:26 8,6 C 7,8 C 5,6 C 95 % 1030,2 hPa 0,0 l/m 0 min 0 min 0 W/m 12,9 km/h (3 Bft) 97,83 %
15.12.2021 03:28 8,6 C 7,8 C 5,6 C 95 % 1030,2 hPa 0,0 l/m 0 min 0 min 0 W/m 12,9 km/h (3 Bft) 97,87 %
15.12.2021 03:30 8,6 C 7,8 C 5,6 C 95 % 1030,1 hPa 0,0 l/m 0 min 0 min 0 W/m 9,7 km/h (2 Bft) 97,87 %
15.12.2021 03:32 8,6 C 7,8 C 5,6 C 95 % 1030,2 hPa 0,0 l/m 0 min 0 min 0 W/m 6,4 km/h (2 Bft) 95,74 %
15.12.2021 03:34 8,6 C 7,8 C 5,6 C 95 % 1030,2 hPa 0,0 l/m 0 min 0 min 0 W/m 9,7 km/h (2 Bft) 93,62 %
15.12.2021 03:36 8,6 C 7,8 C 5,6 C 96 % 1030,2 hPa 0,0 l/m 0 min 2 min 0 W/m 6,4 km/h (2 Bft) 55,56 %
15.12.2021 03:38 8,6 C 7,8 C 5,6 C 96 % 1030,2 hPa 0,0 l/m 0 min 0 min 0 W/m 12,9 km/h (3 Bft) 97,87 %
15.12.2021 03:40 8,6 C 7,8 C 5,6 C 96 % 1030,2 hPa 0,0 l/m 0 min 0 min 0 W/m 16,1 km/h (3 Bft) 95,74 %
15.12.2021 03:42 8,6 C 7,8 C 5,6 C 96 % 1030,2 hPa 0,0 l/m 0 min 0 min 0 W/m 9,7 km/h (2 Bft) 97,87 %
15.12.2021 03:44 8,6 C 7,8 C 5,6 C 96 % 1030,2 hPa 0,0 l/m 0 min 0 min 0 W/m 12,9 km/h (3 Bft) 100,00 %
15.12.2021 03:46 8,6 C 7,8 C 5,6 C 96 % 1030,2 hPa 0,0 l/m 0 min 0 min 0 W/m 9,7 km/h (2 Bft) 97,87 %
15.12.2021 03:48 8,5 C 7,8 C 5,6 C 96 % 1030,2 hPa 0,0 l/m 0 min 0 min 0 W/m 12,9 km/h (3 Bft) 97,87 %
15.12.2021 03:50 8,5 C 7,8 C 5,6 C 96 % 1030,2 hPa 0,0 l/m 0 min 0 min 0 W/m 12,9 km/h (3 Bft) 100,00 %
15.12.2021 03:52 8,5 C 7,8 C 5,6 C 96 % 1030,2 hPa 0,0 l/m 0 min 0 min 0 W/m 16,1 km/h (3 Bft) 100,00 %
15.12.2021 03:54 8,5 C 7,8 C 5,6 C 96 % 1030,1 hPa 0,0 l/m 0 min 0 min 0 W/m 12,9 km/h (3 Bft) 100,00 %
15.12.2021 03:56 8,5 C 7,8 C 5,6 C 96 % 1030,2 hPa 0,0 l/m 0 min 0 min 0 W/m 12,9 km/h (3 Bft) 100,00 %
15.12.2021 03:58 8,5 C 7,8 C 5,6 C 96 % 1030,2 hPa 0,0 l/m 0 min 0 min 0 W/m 9,7 km/h (2 Bft) 97,87 %
15.12.2021 04:00 8,5 C 7,8 C 5,6 C 96 % 1030,2 hPa 0,0 l/m 0 min 0 min 0 W/m 16,1 km/h (3 Bft) 100,00 %
15.12.2021 04:02 8,5 C 7,8 C 5,6 C 96 % 1030,2 hPa 0,0 l/m 0 min 0 min 0 W/m 19,3 km/h (3 Bft) 100,00 %
15.12.2021 04:04 8,4 C 7,8 C 5,6 C 96 % 1030,1 hPa 0,0 l/m 0 min 0 min 0 W/m 9,7 km/h (2 Bft) 100,00 %
15.12.2021 04:06 8,4 C 7,8 C 5,6 C 96 % 1030,1 hPa 0,0 l/m 0 min 0 min 0 W/m 9,7 km/h (2 Bft) 100,00 %
15.12.2021 04:08 8,4 C 7,8 C 5,6 C 96 % 1030,1 hPa 0,0 l/m 0 min 0 min 0 W/m 16,1 km/h (3 Bft) 100,00 %
15.12.2021 04:10 8,4 C 7,8 C 5,6 C 96 % 1030,1 hPa 0,0 l/m 0 min 0 min 0 W/m 19,3 km/h (3 Bft) 97,87 %
15.12.2021 04:12 8,4 C 7,8 C 5,6 C 96 % 1030,1 hPa 0,0 l/m 0 min 0 min 0 W/m 16,1 km/h (3 Bft) 100,00 %
15.12.2021 04:14 8,4 C 7,8 C 5,6 C 96 % 1030,1 hPa 0,0 l/m 0 min 0 min 0 W/m 16,1 km/h (3 Bft) 100,00 %
15.12.2021 04:16 8,4 C 7,8 C 5,6 C 97 % 1030,1 hPa 0,0 l/m 0 min 0 min 0 W/m 12,9 km/h (3 Bft) 100,00 %
15.12.2021 04:18 8,4 C 7,8 C 5,6 C 97 % 1030,1 hPa 0,0 l/m 0 min 0 min 0 W/m 12,9 km/h (3 Bft) 100,00 %
15.12.2021 04:20 8,4 C 7,8 C 5,6 C 97 % 1030,1 hPa 0,0 l/m 0 min 0 min 0 W/m 9,7 km/h (2 Bft) 100,00 %
15.12.2021 04:22 8,4 C 7,8 C 5,6 C 97 % 1030,1 hPa 0,0 l/m 0 min 0 min 0 W/m 16,1 km/h (3 Bft) 100,00 %
15.12.2021 04:24 8,4 C 7,8 C 5,6 C 97 % 1030,1 hPa 0,0 l/m 0 min 0 min 0 W/m 12,9 km/h (3 Bft) 100,00 %
15.12.2021 04:26 8,4 C 7,8 C 5,6 C 97 % 1030,2 hPa 0,0 l/m 0 min 0 min 0 W/m 12,9 km/h (3 Bft) 100,00 %
15.12.2021 04:28 8,4 C 7,8 C 5,6 C 97 % 1030,2 hPa 0,0 l/m 0 min 0 min 0 W/m 22,5 km/h (4 Bft) 100,00 %
15.12.2021 04:30 8,4 C 7,8 C 5,6 C 97 % 1030,2 hPa 0,0 l/m 0 min 0 min 0 W/m 12,9 km/h (3 Bft) 97,87 %
15.12.2021 04:32 8,4 C 7,8 C 5,6 C 97 % 1030,2 hPa 0,0 l/m 0 min 0 min 0 W/m 22,5 km/h (4 Bft) 100,00 %
15.12.2021 04:34 8,4 C 7,8 C 5,6 C 97 % 1030,2 hPa 0,0 l/m 0 min 0 min 0 W/m 22,5 km/h (4 Bft) 100,00 %
15.12.2021 04:36 8,4 C 7,8 C 5,6 C 97 % 1030,3 hPa 0,0 l/m 0 min 0 min 0 W/m 19,3 km/h (3 Bft) 100,00 %
15.12.2021 04:38 8,4 C 7,8 C 6,1 C 97 % 1030,2 hPa 0,0 l/m 0 min 0 min 0 W/m 19,3 km/h (3 Bft) 100,00 %
15.12.2021 04:40 8,4 C 7,8 C 6,1 C 97 % 1030,2 hPa 0,0 l/m 0 min 0 min 0 W/m 19,3 km/h (3 Bft) 100,00 %
15.12.2021 04:42 8,4 C 7,8 C 6,1 C 97 % 1030,2 hPa 0,0 l/m 0 min 0 min 0 W/m 12,9 km/h (3 Bft) 100,00 %
15.12.2021 04:44 8,4 C 7,8 C 5,6 C 97 % 1030,2 hPa 0,0 l/m 0 min 0 min 0 W/m 19,3 km/h (3 Bft) 100,00 %
15.12.2021 04:46 8,4 C 7,8 C 5,6 C 97 % 1030,2 hPa 0,0 l/m 0 min 0 min 0 W/m 16,1 km/h (3 Bft) 100,00 %
15.12.2021 04:48 8,4 C 7,8 C 6,1 C 97 % 1030,2 hPa 0,0 l/m 0 min 0 min 0 W/m 12,9 km/h (3 Bft) 95,74 %
15.12.2021 04:50 8,4 C 7,8 C 6,1 C 97 % 1030,2 hPa 0,0 l/m 0 min 0 min 0 W/m 9,7 km/h (2 Bft) 97,87 %
15.12.2021 04:52 8,4 C 7,8 C 6,1 C 97 % 1030,3 hPa 0,0 l/m 0 min 0 min 0 W/m 9,7 km/h (2 Bft) 97,87 %
15.12.2021 04:54 8,4 C 7,8 C 6,1 C 97 % 1030,2 hPa 0,0 l/m 0 min 0 min 0 W/m 12,9 km/h (3 Bft) 97,87 %
15.12.2021 04:56 8,4 C 7,8 C 6,1 C 97 % 1030,3 hPa 0,0 l/m 0 min 0 min 0 W/m 16,1 km/h (3 Bft) 97,87 %
15.12.2021 04:58 8,4 C 7,8 C 6,1 C 97 % 1030,3 hPa 0,0 l/m 0 min 0 min 0 W/m 16,1 km/h (3 Bft) 95,65 %
15.12.2021 05:00 8,4 C 7,8 C 6,1 C 97 % 1030,3 hPa 0,0 l/m 0 min 0 min 0 W/m 12,9 km/h (3 Bft) 97,87 %
15.12.2021 05:02 8,4 C 7,8 C 6,1 C 97 % 1030,3 hPa 0,0 l/m 0 min 0 min 0 W/m 12,9 km/h (3 Bft) 95,74 %
15.12.2021 05:04 8,4 C 7,8 C 6,1 C 97 % 1030,3 hPa 0,0 l/m 0 min 0 min 0 W/m 16,1 km/h (3 Bft) 97,87 %
15.12.2021 05:06 8,4 C 7,8 C 6,1 C 97 % 1030,3 hPa 0,0 l/m 0 min 0 min 0 W/m 22,5 km/h (4 Bft) 95,74 %
15.12.2021 05:08 8,4 C 7,8 C 6,1 C 97 % 1030,3 hPa 0,0 l/m 0 min 0 min 0 W/m 12,9 km/h (3 Bft) 55,56 %
15.12.2021 05:10 8,4 C 7,8 C 6,1 C 97 % 1030,2 hPa 0,0 l/m 0 min 0 min 0 W/m 12,9 km/h (3 Bft) 97,83 %
15.12.2021 05:12 8,4 C 7,8 C 5,6 C 97 % 1030,2 hPa 0,0 l/m 0 min 0 min 0 W/m 12,9 km/h (3 Bft) 97,87 %
15.12.2021 05:14 8,4 C 7,8 C 5,6 C 97 % 1030,2 hPa 0,0 l/m 0 min 0 min 0 W/m 6,4 km/h (2 Bft) 97,87 %
15.12.2021 05:16 8,4 C 7,8 C 5,6 C 97 % 1030,3 hPa 0,0 l/m 0 min 0 min 0 W/m 9,7 km/h (2 Bft) 97,87 %
15.12.2021 05:18 8,4 C 7,8 C 5,6 C 97 % 1030,3 hPa 0,0 l/m 0 min 0 min 0 W/m 12,9 km/h (3 Bft) 97,87 %
15.12.2021 05:20 8,3 C 7,8 C 5,6 C 97 % 1030,4 hPa 0,0 l/m 0 min 0 min 0 W/m 12,9 km/h (3 Bft) 95,74 %
15.12.2021 05:22 8,3 C 7,8 C 5,6 C 97 % 1030,3 hPa 0,0 l/m 0 min 0 min 0 W/m 9,7 km/h (2 Bft) 100,00 %
15.12.2021 05:24 8,3 C 7,8 C 6,1 C 97 % 1030,3 hPa 0,0 l/m 0 min 0 min 0 W/m 12,9 km/h (3 Bft) 100,00 %
15.12.2021 05:26 8,3 C 7,8 C 6,1 C 97 % 1030,3 hPa 0,0 l/m 0 min 0 min 0 W/m 22,5 km/h (4 Bft) 100,00 %
15.12.2021 05:28 8,3 C 7,8 C 6,1 C 97 % 1030,4 hPa 0,0 l/m 0 min 0 min 0 W/m 16,1 km/h (3 Bft) 95,74 %
15.12.2021 05:30 8,3 C 7,8 C 6,1 C 97 % 1030,3 hPa 0,0 l/m 0 min 0 min 0 W/m 12,9 km/h (3 Bft) 97,87 %
15.12.2021 05:32 8,3 C 7,8 C 6,1 C 97 % 1030,4 hPa 0,0 l/m 0 min 0 min 0 W/m 16,1 km/h (3 Bft) 97,87 %
15.12.2021 05:34 8,3 C 7,8 C 6,1 C 97 % 1030,4 hPa 0,0 l/m 0 min 0 min 0 W/m 12,9 km/h (3 Bft) 97,83 %
15.12.2021 05:36 8,3 C 7,8 C 6,1 C 97 % 1030,4 hPa 0,0 l/m 0 min 0 min 0 W/m 16,1 km/h (3 Bft) 100,00 %
15.12.2021 05:38 8,3 C 7,8 C 6,1 C 97 % 1030,3 hPa 0,0 l/m 0 min 0 min 0 W/m 12,9 km/h (3 Bft) 95,74 %
15.12.2021 05:40 8,3 C 7,8 C 6,1 C 97 % 1030,3 hPa 0,0 l/m 0 min 0 min 0 W/m 12,9 km/h (3 Bft) 95,74 %
15.12.2021 05:42 8,3 C 7,8 C 6,1 C 97 % 1030,4 hPa 0,0 l/m 0 min 0 min 0 W/m 16,1 km/h (3 Bft) 93,62 %
15.12.2021 05:44 8,3 C 7,8 C 6,1 C 97 % 1030,4 hPa 0,0 l/m 0 min 0 min 0 W/m 16,1 km/h (3 Bft) 95,65 %
15.12.2021 05:46 8,3 C 7,8 C 6,1 C 97 % 1030,4 hPa 0,0 l/m 0 min 0 min 0 W/m 25,7 km/h (4 Bft) 93,62 %
15.12.2021 05:48 8,3 C 7,8 C 6,1 C 97 % 1030,4 hPa 0,0 l/m 0 min 0 min 0 W/m 16,1 km/h (3 Bft) 95,74 %
15.12.2021 05:50 8,3 C 7,8 C 6,1 C 98 % 1030,4 hPa 0,0 l/m 0 min 0 min 0 W/m 16,1 km/h (3 Bft) 95,74 %
15.12.2021 05:52 8,3 C 7,8 C 6,1 C 98 % 1030,4 hPa 0,0 l/m 0 min 0 min 0 W/m 16,1 km/h (3 Bft) 95,74 %
15.12.2021 05:54 8,3 C 7,8 C 6,1 C 98 % 1030,4 hPa 0,0 l/m 0 min 0 min 0 W/m 16,1 km/h (3 Bft) 95,74 %
15.12.2021 05:56 8,3 C 7,8 C 6,1 C 98 % 1030,3 hPa 0,0 l/m 0 min 0 min 0 W/m 12,9 km/h (3 Bft) 93,48 %
15.12.2021 05:58 8,3 C 7,8 C 6,1 C 98 % 1030,4 hPa 0,0 l/m 0 min 0 min 0 W/m 12,9 km/h (3 Bft) 95,74 %
15.12.2021 06:00 8,3 C 7,8 C 6,1 C 98 % 1030,4 hPa 0,0 l/m 0 min 0 min 0 W/m 12,9 km/h (3 Bft) 93,62 %
15.12.2021 06:02 8,3 C 7,8 C 6,1 C 98 % 1030,4 hPa 0,0 l/m 0 min 0 min 0 W/m 16,1 km/h (3 Bft) 93,62 %
15.12.2021 06:04 8,3 C 7,8 C 6,1 C 98 % 1030,4 hPa 0,0 l/m 0 min 0 min 0 W/m 9,7 km/h (2 Bft) 97,87 %
15.12.2021 06:07 8,3 C 7,8 C 6,1 C 98 % 1030,4 hPa 0,0 l/m 0 min 0 min 0 W/m 12,9 km/h (3 Bft) 97,14 %
15.12.2021 06:08 8,3 C 7,8 C 6,1 C 98 % 1030,4 hPa 0,0 l/m 0 min 0 min 0 W/m 12,9 km/h (3 Bft) 91,30 %
15.12.2021 06:10 8,3 C 7,8 C 6,1 C 98 % 1030,4 hPa 0,0 l/m 0 min 0 min 0 W/m 12,9 km/h (3 Bft) 95,74 %
15.12.2021 06:12 8,3 C 7,8 C 6,1 C 98 % 1030,4 hPa 0,0 l/m 0 min 0 min 0 W/m 6,4 km/h (2 Bft) 95,74 %
15.12.2021 06:14 8,3 C 7,8 C 6,1 C 98 % 1030,4 hPa 0,0 l/m 0 min 0 min 0 W/m 19,3 km/h (3 Bft) 93,62 %
15.12.2021 06:16 8,3 C 7,8 C 6,1 C 98 % 1030,4 hPa 0,0 l/m 0 min 0 min 0 W/m 12,9 km/h (3 Bft) 93,62 %
15.12.2021 06:18 8,3 C 7,8 C 6,1 C 98 % 1030,5 hPa 0,0 l/m 0 min 0 min 0 W/m 22,5 km/h (4 Bft) 95,74 %
15.12.2021 06:20 8,3 C 7,8 C 6,1 C 98 % 1030,5 hPa 0,0 l/m 0 min 0 min 0 W/m 12,9 km/h (3 Bft) 97,83 %
15.12.2021 06:22 8,3 C 7,8 C 6,1 C 98 % 1030,5 hPa 0,0 l/m 0 min 0 min 0 W/m 12,9 km/h (3 Bft) 100,00 %
15.12.2021 06:24 8,3 C 7,8 C 6,1 C 98 % 1030,6 hPa 0,0 l/m 0 min 0 min 0 W/m 12,9 km/h (3 Bft) 97,87 %
15.12.2021 06:26 8,3 C 7,8 C 6,1 C 98 % 1030,5 hPa 0,0 l/m 0 min 0 min 0 W/m 12,9 km/h (3 Bft) 100,00 %
15.12.2021 06:28 8,3 C 7,8 C 6,1 C 98 % 1030,5 hPa 0,0 l/m 0 min 0 min 0 W/m 12,9 km/h (3 Bft) 100,00 %
15.12.2021 06:30 8,3 C 7,8 C 6,1 C 98 % 1030,5 hPa 0,0 l/m 0 min 0 min 0 W/m 16,1 km/h (3 Bft) 97,87 %
15.12.2021 06:32 8,3 C 7,8 C 6,1 C 98 % 1030,6 hPa 0,0 l/m 0 min 0 min 0 W/m 12,9 km/h (3 Bft) 100,00 %
15.12.2021 06:34 8,3 C 7,8 C 6,1 C 98 % 1030,6 hPa 0,0 l/m 0 min 0 min 0 W/m 16,1 km/h (3 Bft) 97,87 %
15.12.2021 06:36 8,3 C 7,8 C 6,1 C 98 % 1030,6 hPa 0,0 l/m 0 min 0 min 0 W/m 9,7 km/h (2 Bft) 100,00 %
15.12.2021 06:38 8,3 C 7,8 C 6,1 C 98 % 1030,6 hPa 0,0 l/m 0 min 0 min 0 W/m 6,4 km/h (2 Bft) 100,00 %
15.12.2021 06:40 8,3 C 7,8 C 6,1 C 98 % 1030,6 hPa 0,0 l/m 0 min 0 min 0 W/m 12,9 km/h (3 Bft) 97,87 %
15.12.2021 06:42 8,3 C 7,8 C 6,1 C 98 % 1030,5 hPa 0,0 l/m 0 min 0 min 0 W/m 19,3 km/h (3 Bft) 97,83 %
15.12.2021 06:44 8,3 C 7,8 C 6,1 C 98 % 1030,6 hPa 0,0 l/m 0 min 0 min 0 W/m 12,9 km/h (3 Bft) 97,87 %
15.12.2021 06:46 8,3 C 7,8 C 6,1 C 98 % 1030,6 hPa 0,0 l/m 0 min 0 min 0 W/m 16,1 km/h (3 Bft) 97,87 %
15.12.2021 06:48 8,3 C 7,8 C 6,1 C 98 % 1030,6 hPa 0,0 l/m 0 min 0 min 0 W/m 6,4 km/h (2 Bft) 97,87 %
15.12.2021 06:50 8,3 C 7,8 C 6,1 C 98 % 1030,6 hPa 0,0 l/m 0 min 0 min 0 W/m 9,7 km/h (2 Bft) 97,87 %
15.12.2021 06:52 8,3 C 7,8 C 6,1 C 98 % 1030,6 hPa 0,0 l/m 0 min 0 min 0 W/m 6,4 km/h (2 Bft) 97,87 %
15.12.2021 06:54 8,3 C 7,8 C 6,1 C 98 % 1030,7 hPa 0,0 l/m 0 min 0 min 0 W/m 6,4 km/h (2 Bft) 97,87 %
15.12.2021 06:56 8,3 C 7,8 C 6,1 C 98 % 1030,7 hPa 0,0 l/m 0 min 0 min 0 W/m 3,2 km/h (1 Bft) 97,83 %
15.12.2021 06:58 8,3 C 7,8 C 6,1 C 98 % 1030,7 hPa 0,0 l/m 0 min 0 min 0 W/m 6,4 km/h (2 Bft) 97,87 %
15.12.2021 07:00 8,3 C 7,8 C 6,1 C 98 % 1030,7 hPa 0,0 l/m 0 min 0 min 0 W/m 3,2 km/h (1 Bft) 97,87 %
15.12.2021 07:02 8,3 C 7,8 C 6,1 C 98 % 1030,7 hPa 0,0 l/m 0 min 0 min 0 W/m 16,1 km/h (3 Bft) 95,74 %
15.12.2021 07:04 8,3 C 7,8 C 6,1 C 98 % 1030,7 hPa 0,0 l/m 0 min 0 min 0 W/m 6,4 km/h (2 Bft) 95,74 %
15.12.2021 07:06 8,3 C 7,8 C 6,1 C 98 % 1030,7 hPa 0,0 l/m 0 min 0 min 0 W/m 12,9 km/h (3 Bft) 97,87 %
15.12.2021 07:08 8,3 C 7,8 C 6,1 C 98 % 1030,7 hPa 0,0 l/m 0 min 0 min 0 W/m 12,9 km/h (3 Bft) 97,83 %
15.12.2021 07:10 8,3 C 7,8 C 6,1 C 98 % 1030,7 hPa 0,0 l/m 0 min 0 min 0 W/m 12,9 km/h (3 Bft) 97,87 %
15.12.2021 07:12 8,3 C 7,8 C 6,1 C 98 % 1030,7 hPa 0,0 l/m 0 min 0 min 0 W/m 9,7 km/h (2 Bft) 97,87 %
15.12.2021 07:14 8,3 C 7,8 C 6,1 C 98 % 1030,7 hPa 0,0 l/m 0 min 0 min 0 W/m 9,7 km/h (2 Bft) 97,87 %
15.12.2021 07:16 8,3 C 7,8 C 6,1 C 98 % 1030,7 hPa 0,0 l/m 0 min 0 min 0 W/m 6,4 km/h (2 Bft) 95,74 %
15.12.2021 07:18 8,3 C 7,8 C 6,1 C 98 % 1030,8 hPa 0,0 l/m 0 min 0 min 0 W/m 12,9 km/h (3 Bft) 100,00 %
15.12.2021 07:20 8,3 C 7,8 C 6,1 C 98 % 1030,7 hPa 0,0 l/m 0 min 0 min 0 W/m 16,1 km/h (3 Bft) 95,65 %
15.12.2021 07:22 8,3 C 7,8 C 6,1 C 98 % 1030,8 hPa 0,0 l/m 0 min 0 min 0 W/m 9,7 km/h (2 Bft) 100,00 %
15.12.2021 07:24 8,3 C 7,8 C 6,1 C 98 % 1030,7 hPa 0,0 l/m 0 min 0 min 0 W/m 6,4 km/h (2 Bft) 100,00 %
15.12.2021 07:26 8,3 C 7,8 C 6,1 C 98 % 1030,7 hPa 0,0 l/m 0 min 0 min 0 W/m 12,9 km/h (3 Bft) 100,00 %
15.12.2021 07:28 8,3 C 7,8 C 6,1 C 98 % 1030,7 hPa 0,0 l/m 0 min 0 min 0 W/m 12,9 km/h (3 Bft) 100,00 %
15.12.2021 07:30 8,3 C 7,8 C 6,1 C 98 % 1030,7 hPa 0,0 l/m 0 min 0 min 0 W/m 16,1 km/h (3 Bft) 100,00 %
15.12.2021 07:32 8,3 C 7,8 C 6,1 C 98 % 1030,7 hPa 0,0 l/m 0 min 0 min 0 W/m 12,9 km/h (3 Bft) 100,00 %
15.12.2021 07:34 8,3 C 7,8 C 6,1 C 98 % 1030,7 hPa 0,0 l/m 0 min 0 min 0 W/m 19,3 km/h (3 Bft) 100,00 %
15.12.2021 07:36 8,3 C 7,8 C 6,1 C 98 % 1030,8 hPa 0,0 l/m 0 min 0 min 0 W/m 12,9 km/h (3 Bft) 100,00 %
15.12.2021 07:38 8,3 C 7,8 C 6,1 C 98 % 1030,8 hPa 0,0 l/m 0 min 0 min 0 W/m 12,9 km/h (3 Bft) 95,74 %
15.12.2021 07:40 8,3 C 7,8 C 6,1 C 98 % 1030,8 hPa 0,0 l/m 0 min 0 min 0 W/m 16,1 km/h (3 Bft) 100,00 %
15.12.2021 07:43 8,3 C 7,8 C 6,1 C 98 % 1030,9 hPa 0,0 l/m 0 min 0 min 0 W/m 9,7 km/h (2 Bft) 98,57 %
15.12.2021 07:44 8,3 C 7,8 C 6,1 C 98 % 1030,9 hPa 0,0 l/m 0 min 0 min 0 W/m 6,4 km/h (2 Bft) 100,00 %
15.12.2021 07:46 8,3 C 7,8 C 6,1 C 98 % 1030,9 hPa 0,0 l/m 0 min 0 min 0 W/m 6,4 km/h (2 Bft) 100,00 %
15.12.2021 07:48 8,3 C 7,8 C 6,1 C 98 % 1030,8 hPa 0,0 l/m 0 min 0 min 0 W/m 12,9 km/h (3 Bft) 100,00 %
15.12.2021 07:50 8,3 C 7,8 C 6,1 C 98 % 1030,8 hPa 0,0 l/m 0 min 0 min 0 W/m 12,9 km/h (3 Bft) 100,00 %
15.12.2021 07:52 8,3 C 7,8 C 6,1 C 98 % 1030,8 hPa 0,0 l/m 0 min 0 min 0 W/m 12,9 km/h (3 Bft) 100,00 %
15.12.2021 07:54 8,3 C 7,8 C 6,1 C 98 % 1030,9 hPa 0,0 l/m 0 min 0 min 0 W/m 12,9 km/h (3 Bft) 97,83 %
15.12.2021 07:56 8,3 C 7,8 C 6,1 C 98 % 1030,9 hPa 0,0 l/m 0 min 0 min 0 W/m 12,9 km/h (3 Bft) 95,74 %
15.12.2021 07:58 8,3 C 7,8 C 6,1 C 98 % 1030,9 hPa 0,0 l/m 0 min 0 min 0 W/m 16,1 km/h (3 Bft) 95,74 %
15.12.2021 08:00 8,3 C 7,8 C 6,1 C 98 % 1030,9 hPa 0,0 l/m 0 min 0 min 0 W/m 22,5 km/h (4 Bft) 97,87 %
15.12.2021 08:02 8,3 C 7,8 C 6,1 C 98 % 1030,9 hPa 0,0 l/m 0 min 0 min 0 W/m 12,9 km/h (3 Bft) 97,87 %
15.12.2021 08:04 8,3 C 7,8 C 6,1 C 98 % 1030,9 hPa 0,0 l/m 0 min 0 min 0 W/m 19,3 km/h (3 Bft) 97,87 %
15.12.2021 08:06 8,3 C 7,8 C 6,1 C 98 % 1030,9 hPa 0,0 l/m 0 min 0 min 0 W/m 9,7 km/h (2 Bft) 97,83 %
15.12.2021 08:08 8,3 C 7,8 C 6,1 C 98 % 1031,0 hPa 0,0 l/m 0 min 0 min 0 W/m 22,5 km/h (4 Bft) 97,92 %
15.12.2021 08:10 8,3 C 7,8 C 6,1 C 98 % 1031,0 hPa 0,0 l/m 0 min 0 min 0 W/m 16,1 km/h (3 Bft) 100,00 %
15.12.2021 08:12 8,3 C 7,8 C 6,1 C 98 % 1031,0 hPa 0,0 l/m 0 min 0 min 0 W/m 16,1 km/h (3 Bft) 97,87 %
15.12.2021 08:14 8,3 C 7,8 C 6,1 C 98 % 1031,0 hPa 0,0 l/m 0 min 0 min 0 W/m 12,9 km/h (3 Bft) 97,87 %
15.12.2021 08:16 8,3 C 7,8 C 6,1 C 98 % 1031,0 hPa 0,0 l/m 0 min 0 min 0 W/m 16,1 km/h (3 Bft) 97,87 %
15.12.2021 08:18 8,3 C 7,8 C 6,1 C 98 % 1031,0 hPa 0,0 l/m 0 min 0 min 0 W/m 19,3 km/h (3 Bft) 97,87 %
15.12.2021 08:20 8,3 C 7,8 C 6,1 C 98 % 1031,0 hPa 0,0 l/m 0 min 0 min 0 W/m 12,9 km/h (3 Bft) 97,87 %
15.12.2021 08:22 8,3 C 7,8 C 6,1 C 98 % 1031,1 hPa 0,0 l/m 0 min 0 min 0 W/m 12,9 km/h (3 Bft) 97,83 %
15.12.2021 08:24 8,3 C 7,8 C 6,1 C 98 % 1031,2 hPa 0,0 l/m 0 min 0 min 0 W/m 6,4 km/h (2 Bft) 95,74 %
15.12.2021 08:26 8,4 C 7,8 C 6,1 C 98 % 1031,2 hPa 0,0 l/m 0 min 0 min 0 W/m 6,4 km/h (2 Bft) 95,74 %
15.12.2021 08:28 8,3 C 7,8 C 6,1 C 98 % 1031,2 hPa 0,0 l/m 0 min 0 min 0 W/m 9,7 km/h (2 Bft) 97,87 %
15.12.2021 08:30 8,3 C 7,8 C 6,1 C 98 % 1031,1 hPa 0,0 l/m 0 min 0 min 0 W/m 12,9 km/h (3 Bft) 95,74 %
15.12.2021 08:32 8,4 C 7,8 C 6,1 C 98 % 1031,2 hPa 0,0 l/m 0 min 0 min 0 W/m 12,9 km/h (3 Bft) 95,74 %
15.12.2021 08:34 8,4 C 7,8 C 6,7 C 98 % 1031,1 hPa 0,0 l/m 0 min 0 min 0 W/m 12,9 km/h (3 Bft) 95,65 %
15.12.2021 08:36 8,4 C 7,8 C 6,7 C 98 % 1031,2 hPa 0,0 l/m 0 min 0 min 0 W/m 19,3 km/h (3 Bft) 91,49 %
15.12.2021 08:38 8,4 C 7,8 C 6,7 C 98 % 1031,2 hPa 0,0 l/m 0 min 0 min 0 W/m 22,5 km/h (4 Bft) 95,74 %
15.12.2021 08:40 8,4 C 7,8 C 6,7 C 98 % 1031,2 hPa 0,0 l/m 0 min 0 min 0 W/m 12,9 km/h (3 Bft) 95,74 %
15.12.2021 08:42 8,4 C 7,8 C 6,7 C 98 % 1031,2 hPa 0,0 l/m 0 min 0 min 0 W/m 9,7 km/h (2 Bft) 91,49 %
15.12.2021 08:44 8,4 C 7,8 C 6,7 C 98 % 1031,2 hPa 0,0 l/m 0 min 0 min 0 W/m 12,9 km/h (3 Bft) 93,62 %
15.12.2021 08:46 8,4 C 7,8 C 6,7 C 98 % 1031,3 hPa 0,0 l/m 0 min 0 min 0 W/m 16,1 km/h (3 Bft) 93,48 %
15.12.2021 08:48 8,4 C 7,8 C 6,7 C 98 % 1031,3 hPa 0,0 l/m 0 min 0 min 0 W/m 12,9 km/h (3 Bft) 91,49 %
15.12.2021 08:50 8,4 C 7,8 C 6,7 C 98 % 1031,3 hPa 0,0 l/m 0 min 0 min 0 W/m 12,9 km/h (3 Bft) 93,62 %
15.12.2021 08:52 8,4 C 7,8 C 6,7 C 98 % 1031,3 hPa 0,0 l/m 0 min 0 min 0 W/m 12,9 km/h (3 Bft) 93,62 %
15.12.2021 08:54 8,4 C 7,8 C 6,7 C 98 % 1031,4 hPa 0,0 l/m 0 min 0 min 0 W/m 6,4 km/h (2 Bft) 91,49 %
15.12.2021 08:56 8,4 C 7,8 C 6,7 C 98 % 1031,4 hPa 0,0 l/m 0 min 0 min 0 W/m 16,1 km/h (3 Bft) 97,83 %
15.12.2021 08:58 8,4 C 7,8 C 6,7 C 98 % 1031,5 hPa 0,0 l/m 0 min 0 min 0 W/m 6,4 km/h (2 Bft) 95,74 %
15.12.2021 09:00 8,4 C 7,8 C 6,7 C 98 % 1031,5 hPa 0,0 l/m 0 min 0 min 0 W/m 9,7 km/h (2 Bft) 95,74 %
15.12.2021 09:02 8,4 C 7,8 C 6,7 C 98 % 1031,4 hPa 0,0 l/m 0 min 0 min 0 W/m 12,9 km/h (3 Bft) 93,62 %
15.12.2021 09:04 8,4 C 7,8 C 6,7 C 98 % 1031,5 hPa 0,0 l/m 0 min 0 min 0 W/m 16,1 km/h (3 Bft) 95,74 %
15.12.2021 09:06 8,4 C 7,8 C 6,7 C 98 % 1031,4 hPa 0,0 l/m 0 min 0 min 5 W/m 16,1 km/h (3 Bft) 93,62 %
15.12.2021 09:08 8,4 C 7,8 C 6,7 C 98 % 1031,4 hPa 0,0 l/m 0 min 0 min 5 W/m 12,9 km/h (3 Bft) 95,65 %
15.12.2021 09:10 8,4 C 7,8 C 6,7 C 98 % 1031,5 hPa 0,0 l/m 0 min 0 min 5 W/m 9,7 km/h (2 Bft) 93,62 %
15.12.2021 09:12 8,4 C 7,8 C 6,7 C 98 % 1031,4 hPa 0,0 l/m 0 min 0 min 5 W/m 6,4 km/h (2 Bft) 97,87 %
15.12.2021 09:14 8,4 C 7,8 C 6,7 C 98 % 1031,5 hPa 0,0 l/m 0 min 0 min 5 W/m 16,1 km/h (3 Bft) 95,74 %
15.12.2021 09:16 8,4 C 7,8 C 6,7 C 98 % 1031,4 hPa 0,0 l/m 0 min 0 min 5 W/m 12,9 km/h (3 Bft) 100,00 %
15.12.2021 09:18 8,4 C 7,8 C 6,7 C 98 % 1031,5 hPa 0,0 l/m 0 min 0 min 5 W/m 12,9 km/h (3 Bft) 100,00 %
15.12.2021 09:20 8,4 C 7,8 C 6,7 C 98 % 1031,4 hPa 0,0 l/m 0 min 0 min 6 W/m 12,9 km/h (3 Bft) 100,00 %
15.12.2021 09:22 8,5 C 7,8 C 6,7 C 98 % 1031,4 hPa 0,0 l/m 0 min 0 min 7 W/m 12,9 km/h (3 Bft) 100,00 %
15.12.2021 09:24 8,5 C 7,8 C 6,7 C 98 % 1031,4 hPa 0,0 l/m 0 min 0 min 8 W/m 12,9 km/h (3 Bft) 97,87 %
15.12.2021 09:26 8,5 C 7,8 C 6,7 C 98 % 1031,4 hPa 0,0 l/m 0 min 0 min 9 W/m 12,9 km/h (3 Bft) 97,87 %
15.12.2021 09:28 8,5 C 7,8 C 6,7 C 98 % 1031,5 hPa 0,0 l/m 0 min 0 min 7 W/m 19,3 km/h (3 Bft) 100,00 %
15.12.2021 09:30 8,5 C 7,8 C 6,7 C 98 % 1031,4 hPa 0,0 l/m 0 min 0 min 8 W/m 16,1 km/h (3 Bft) 100,00 %
15.12.2021 09:32 8,5 C 7,8 C 6,7 C 98 % 1031,4 hPa 0,0 l/m 0 min 0 min 9 W/m 22,5 km/h (4 Bft) 97,83 %
15.12.2021 09:34 8,5 C 7,8 C 6,7 C 98 % 1031,4 hPa 0,0 l/m 0 min 0 min 9 W/m 22,5 km/h (4 Bft) 100,00 %
15.12.2021 09:36 8,6 C 7,8 C 6,7 C 98 % 1031,5 hPa 0,0 l/m 0 min 0 min 9 W/m 16,1 km/h (3 Bft) 100,00 %
15.12.2021 09:38 8,6 C 7,8 C 6,7 C 98 % 1031,5 hPa 0,0 l/m 0 min 0 min 9 W/m 16,1 km/h (3 Bft) 100,00 %
15.12.2021 09:40 8,6 C 7,8 C 6,7 C 98 % 1031,5 hPa 0,0 l/m 0 min 0 min 9 W/m 6,4 km/h (2 Bft) 100,00 %
15.12.2021 09:42 8,6 C 7,8 C 6,7 C 98 % 1031,6 hPa 0,0 l/m 0 min 0 min 9 W/m 12,9 km/h (3 Bft) 100,00 %
15.12.2021 09:44 8,6 C 7,8 C 6,7 C 98 % 1031,6 hPa 0,0 l/m 0 min 0 min 10 W/m 22,5 km/h (4 Bft) 100,00 %
15.12.2021 09:46 8,6 C 7,8 C 6,7 C 98 % 1031,6 hPa 0,0 l/m 0 min 0 min 10 W/m 16,1 km/h (3 Bft) 100,00 %
15.12.2021 09:48 8,6 C 7,8 C 6,7 C 98 % 1031,6 hPa 0,0 l/m 0 min 0 min 9 W/m 16,1 km/h (3 Bft) 100,00 %
15.12.2021 09:50 8,6 C 7,8 C 6,7 C 98 % 1031,6 hPa 0,0 l/m 0 min 0 min 11 W/m 16,1 km/h (3 Bft) 100,00 %
15.12.2021 09:54 8,6 C 7,8 C 6,7 C 98 % 1031,6 hPa 0,0 l/m 0 min 0 min 12 W/m 6,4 km/h (2 Bft) 100,00 %
15.12.2021 09:56 8,6 C 7,8 C 6,7 C 98 % 1031,6 hPa 0,0 l/m 0 min 0 min 12 W/m 19,3 km/h (3 Bft) 100,00 %
15.12.2021 09:58 8,6 C 7,8 C 6,7 C 98 % 1031,6 hPa 0,0 l/m 0 min 0 min 12 W/m 9,7 km/h (2 Bft) 100,00 %
15.12.2021 10:00 8,6 C 7,8 C 6,7 C 98 % 1031,6 hPa 0,0 l/m 0 min 0 min 14 W/m 16,1 km/h (3 Bft) 100,00 %
15.12.2021 10:02 8,6 C 8,3 C 6,7 C 98 % 1031,6 hPa 0,0 l/m 0 min 0 min 16 W/m 9,7 km/h (2 Bft) 100,00 %
15.12.2021 10:04 8,6 C 8,3 C 6,7 C 98 % 1031,6 hPa 0,0 l/m 0 min 0 min 16 W/m 6,4 km/h (2 Bft) 100,00 %
15.12.2021 10:06 8,6 C 8,3 C 6,7 C 98 % 1031,6 hPa 0,0 l/m 0 min 0 min 20 W/m 9,7 km/h (2 Bft) 97,83 %
15.12.2021 10:08 8,6 C 8,3 C 6,7 C 98 % 1031,6 hPa 0,0 l/m 0 min 0 min 21 W/m 29,0 km/h (5 Bft) 100,00 %
15.12.2021 10:10 8,6 C 8,3 C 6,7 C 98 % 1031,7 hPa 0,0 l/m 0 min 0 min 21 W/m 16,1 km/h (3 Bft) 100,00 %
15.12.2021 10:12 8,6 C 8,3 C 6,7 C 98 % 1031,7 hPa 0,0 l/m 0 min 0 min 21 W/m 22,5 km/h (4 Bft) 100,00 %
15.12.2021 10:14 8,7 C 8,3 C 6,7 C 98 % 1031,6 hPa 0,0 l/m 0 min 0 min 22 W/m 9,7 km/h (2 Bft) 97,87 %
15.12.2021 10:16 8,6 C 8,3 C 6,7 C 98 % 1031,7 hPa 0,0 l/m 0 min 0 min 21 W/m 9,7 km/h (2 Bft) 100,00 %
15.12.2021 10:18 8,7 C 8,3 C 6,7 C 98 % 1031,8 hPa 0,0 l/m 0 min 0 min 21 W/m 12,9 km/h (3 Bft) 97,83 %
15.12.2021 10:20 8,7 C 8,3 C 6,7 C 98 % 1031,8 hPa 0,0 l/m 0 min 0 min 21 W/m 6,4 km/h (2 Bft) 97,87 %
15.12.2021 10:22 8,7 C 8,3 C 6,7 C 98 % 1031,8 hPa 0,0 l/m 0 min 0 min 21 W/m 6,4 km/h (2 Bft) 95,74 %
15.12.2021 10:24 8,7 C 8,3 C 6,7 C 98 % 1031,7 hPa 0,0 l/m 0 min 0 min 22 W/m 12,9 km/h (3 Bft) 100,00 %
15.12.2021 10:26 8,7 C 8,3 C 6,7 C 98 % 1031,7 hPa 0,0 l/m 0 min 0 min 20 W/m 12,9 km/h (3 Bft) 97,87 %
15.12.2021 10:28 8,7 C 8,3 C 6,7 C 98 % 1031,7 hPa 0,0 l/m 0 min 0 min 21 W/m 12,9 km/h (3 Bft) 97,87 %
15.12.2021 10:30 8,7 C 8,3 C 6,7 C 98 % 1031,7 hPa 0,0 l/m 0 min 0 min 22 W/m 9,7 km/h (2 Bft) 100,00 %
15.12.2021 10:32 8,7 C 8,3 C 6,7 C 98 % 1031,7 hPa 0,0 l/m 0 min 0 min 21 W/m 12,9 km/h (3 Bft) 95,74 %
15.12.2021 10:34 8,7 C 8,3 C 6,7 C 98 % 1031,8 hPa 0,0 l/m 0 min 0 min 22 W/m 9,7 km/h (2 Bft) 100,00 %
15.12.2021 10:36 8,7 C 8,3 C 6,7 C 98 % 1031,7 hPa 0,0 l/m 0 min 0 min 24 W/m 12,9 km/h (3 Bft) 97,87 %
15.12.2021 10:38 8,7 C 8,3 C 6,7 C 98 % 1031,7 hPa 0,0 l/m 0 min 0 min 27 W/m 6,4 km/h (2 Bft) 97,87 %
15.12.2021 10:40 8,7 C 8,3 C 6,7 C 98 % 1031,8 hPa 0,0 l/m 0 min 0 min 32 W/m 16,1 km/h (3 Bft) 97,87 %
15.12.2021 10:42 8,7 C 8,3 C 6,7 C 98 % 1031,8 hPa 0,0 l/m 0 min 0 min 30 W/m 12,9 km/h (3 Bft) 93,48 %
15.12.2021 10:44 8,7 C 8,3 C 6,7 C 98 % 1031,8 hPa 0,0 l/m 0 min 0 min 30 W/m 12,9 km/h (3 Bft) 97,87 %
15.12.2021 10:46 8,7 C 8,3 C 6,7 C 98 % 1031,8 hPa 0,0 l/m 0 min 0 min 30 W/m 6,4 km/h (2 Bft) 97,87 %
15.12.2021 10:48 8,8 C 8,3 C 6,7 C 98 % 1031,8 hPa 0,0 l/m 0 min 0 min 31 W/m 16,1 km/h (3 Bft) 97,87 %
15.12.2021 10:50 8,8 C 8,3 C 6,7 C 98 % 1031,8 hPa 0,0 l/m 0 min 0 min 31 W/m 16,1 km/h (3 Bft) 95,74 %
15.12.2021 10:52 8,8 C 8,3 C 6,7 C 98 % 1031,9 hPa 0,0 l/m 0 min 0 min 29 W/m 12,9 km/h (3 Bft) 95,74 %
15.12.2021 10:54 8,8 C 8,3 C 7,2 C 98 % 1031,9 hPa 0,0 l/m 0 min 0 min 29 W/m 12,9 km/h (3 Bft) 93,48 %
15.12.2021 10:56 8,8 C 8,3 C 7,2 C 98 % 1031,9 hPa 0,0 l/m 0 min 0 min 30 W/m 19,3 km/h (3 Bft) 95,74 %
15.12.2021 10:58 8,8 C 8,3 C 7,2 C 98 % 1031,9 hPa 0,0 l/m 0 min 0 min 32 W/m 16,1 km/h (3 Bft) 93,62 %
15.12.2021 11:00 8,8 C 8,3 C 7,2 C 98 % 1031,9 hPa 0,0 l/m 0 min 0 min 32 W/m 22,5 km/h (4 Bft) 95,74 %
15.12.2021 11:02 8,8 C 8,3 C 7,2 C 98 % 1031,9 hPa 0,0 l/m 0 min 0 min 32 W/m 12,9 km/h (3 Bft) 93,62 %
15.12.2021 11:04 8,8 C 8,3 C 7,2 C 98 % 1032,0 hPa 0,0 l/m 0 min 0 min 30 W/m 9,7 km/h (2 Bft) 95,92 %
15.12.2021 11:06 8,8 C 8,3 C 7,2 C 98 % 1032,0 hPa 0,0 l/m 0 min 0 min 31 W/m 6,4 km/h (2 Bft) 95,74 %
15.12.2021 11:08 8,8 C 8,3 C 7,2 C 98 % 1032,0 hPa 0,0 l/m 0 min 0 min 32 W/m 6,4 km/h (2 Bft) 97,87 %
15.12.2021 11:10 8,8 C 8,3 C 7,2 C 98 % 1032,0 hPa 0,0 l/m 0 min 0 min 33 W/m 12,9 km/h (3 Bft) 97,87 %
15.12.2021 11:12 8,8 C 8,3 C 7,2 C 98 % 1032,0 hPa 0,0 l/m 0 min 0 min 34 W/m 16,1 km/h (3 Bft) 95,74 %
15.12.2021 11:14 8,8 C 8,3 C 7,2 C 98 % 1031,9 hPa 0,0 l/m 0 min 0 min 35 W/m 19,3 km/h (3 Bft) 97,87 %
15.12.2021 11:16 8,8 C 8,3 C 7,2 C 98 % 1032,0 hPa 0,0 l/m 0 min 0 min 33 W/m 19,3 km/h (3 Bft) 95,65 %
15.12.2021 11:18 8,8 C 8,3 C 7,2 C 98 % 1031,9 hPa 0,0 l/m 0 min 0 min 34 W/m 6,4 km/h (2 Bft) 97,87 %
15.12.2021 11:20 8,8 C 8,3 C 7,2 C 98 % 1032,0 hPa 0,0 l/m 0 min 0 min 33 W/m 6,4 km/h (2 Bft) 97,73 %
15.12.2021 11:22 8,9 C 8,3 C 7,2 C 98 % 1032,0 hPa 0,0 l/m 0 min 0 min 32 W/m 16,1 km/h (3 Bft) 73,47 %
15.12.2021 11:24 8,9 C 8,3 C 7,2 C 98 % 1031,9 hPa 0,0 l/m 0 min 0 min 33 W/m 6,4 km/h (2 Bft) 78,26 %
15.12.2021 11:26 8,8 C 8,3 C 7,2 C 98 % 1031,9 hPa 0,0 l/m 0 min 0 min 38 W/m 12,9 km/h (3 Bft) 95,74 %
15.12.2021 11:28 8,8 C 8,3 C 7,2 C 98 % 1031,9 hPa 0,0 l/m 0 min 0 min 40 W/m 12,9 km/h (3 Bft) 91,49 %
15.12.2021 11:30 8,9 C 8,3 C 7,2 C 98 % 1031,9 hPa 0,0 l/m 0 min 0 min 40 W/m 19,3 km/h (3 Bft) 97,87 %
15.12.2021 11:34 8,9 C 8,3 C 7,2 C 98 % 1031,8 hPa 0,0 l/m 0 min 0 min 38 W/m 19,3 km/h (3 Bft) 95,60 %
15.12.2021 11:36 8,9 C 8,3 C 7,2 C 98 % 1031,8 hPa 0,0 l/m 0 min 0 min 41 W/m 12,9 km/h (3 Bft) 97,83 %
15.12.2021 11:38 8,9 C 8,3 C 7,2 C 98 % 1031,8 hPa 0,0 l/m 0 min 0 min 41 W/m 12,9 km/h (3 Bft) 98,00 %
15.12.2021 11:40 8,9 C 8,3 C 7,2 C 98 % 1031,8 hPa 0,0 l/m 0 min 0 min 38 W/m 6,4 km/h (2 Bft) 97,83 %
15.12.2021 11:42 8,9 C 8,3 C 7,2 C 98 % 1031,9 hPa 0,0 l/m 0 min 0 min 38 W/m 19,3 km/h (3 Bft) 97,87 %
15.12.2021 11:44 8,9 C 8,3 C 7,2 C 98 % 1031,9 hPa 0,0 l/m 0 min 0 min 39 W/m 9,7 km/h (2 Bft) 97,87 %
15.12.2021 11:46 8,9 C 8,3 C 7,2 C 98 % 1031,9 hPa 0,0 l/m 0 min 0 min 38 W/m 12,9 km/h (3 Bft) 95,74 %
15.12.2021 11:48 8,9 C 8,3 C 7,2 C 98 % 1031,9 hPa 0,0 l/m 0 min 0 min 41 W/m 12,9 km/h (3 Bft) 97,87 %
15.12.2021 11:50 8,9 C 8,3 C 7,2 C 98 % 1031,9 hPa 0,0 l/m 0 min 0 min 42 W/m 16,1 km/h (3 Bft) 97,83 %
15.12.2021 11:52 8,9 C 8,3 C 7,2 C 98 % 1031,8 hPa 0,0 l/m 0 min 0 min 45 W/m 25,7 km/h (4 Bft) 97,87 %
15.12.2021 11:54 9,0 C 8,3 C 7,2 C 98 % 1031,9 hPa 0,0 l/m 0 min 0 min 45 W/m 16,1 km/h (3 Bft) 97,87 %
15.12.2021 11:56 9,0 C 8,3 C 7,2 C 97 % 1031,8 hPa 0,0 l/m 0 min 0 min 42 W/m 12,9 km/h (3 Bft) 97,87 %
15.12.2021 11:58 9,0 C 8,9 C 7,2 C 97 % 1031,9 hPa 0,0 l/m 0 min 0 min 41 W/m 16,1 km/h (3 Bft) 97,87 %
15.12.2021 12:00 9,0 C 8,9 C 7,2 C 97 % 1031,9 hPa 0,0 l/m 0 min 0 min 40 W/m 12,9 km/h (3 Bft) 97,87 %
15.12.2021 12:02 9,0 C 8,9 C 7,2 C 97 % 1031,9 hPa 0,0 l/m 0 min 0 min 40 W/m 12,9 km/h (3 Bft) 95,92 %
15.12.2021 12:04 9,0 C 8,9 C 7,2 C 97 % 1031,8 hPa 0,0 l/m 0 min 0 min 44 W/m 6,4 km/h (2 Bft) 100,00 %
15.12.2021 12:08 9,1 C 8,9 C 7,2 C 97 % 1031,9 hPa 0,0 l/m 0 min 0 min 42 W/m 12,9 km/h (3 Bft) 96,91 %
15.12.2021 12:10 9,1 C 8,9 C 7,2 C 97 % 1031,8 hPa 0,0 l/m 0 min 0 min 39 W/m 16,1 km/h (3 Bft) 100,00 %
15.12.2021 12:12 9,1 C 8,9 C 7,2 C 97 % 1031,9 hPa 0,0 l/m 0 min 0 min 44 W/m 16,1 km/h (3 Bft) 97,87 %
15.12.2021 12:14 9,1 C 8,9 C 7,2 C 97 % 1031,9 hPa 0,0 l/m 0 min 0 min 46 W/m 6,4 km/h (2 Bft) 97,92 %
15.12.2021 12:16 9,1 C 8,9 C 7,2 C 97 % 1031,8 hPa 0,0 l/m 0 min 0 min 40 W/m 9,7 km/h (2 Bft) 100,00 %
15.12.2021 12:18 9,1 C 8,9 C 7,2 C 97 % 1031,8 hPa 0,0 l/m 0 min 0 min 38 W/m 12,9 km/h (3 Bft) 100,00 %
15.12.2021 12:20 9,1 C 8,9 C 7,2 C 97 % 1031,9 hPa 0,0 l/m 0 min 0 min 35 W/m 6,4 km/h (2 Bft) 100,00 %
15.12.2021 12:22 9,1 C 8,9 C 7,2 C 97 % 1031,9 hPa 0,0 l/m 0 min 0 min 34 W/m 6,4 km/h (2 Bft) 100,00 %
15.12.2021 12:24 9,1 C 8,9 C 7,2 C 97 % 1031,9 hPa 0,0 l/m 0 min 0 min 39 W/m 9,7 km/h (2 Bft) 97,87 %
15.12.2021 12:26 9,1 C 8,9 C 7,2 C 97 % 1031,9 hPa 0,0 l/m 0 min 0 min 40 W/m 16,1 km/h (3 Bft) 100,00 %
15.12.2021 12:28 9,1 C 8,9 C 7,2 C 97 % 1031,9 hPa 0,0 l/m 0 min 0 min 39 W/m 9,7 km/h (2 Bft) 100,00 %
15.12.2021 12:30 9,1 C 8,9 C 7,2 C 97 % 1031,8 hPa 0,0 l/m 0 min 0 min 43 W/m 16,1 km/h (3 Bft) 97,87 %
15.12.2021 12:32 9,1 C 8,9 C 7,2 C 97 % 1031,8 hPa 0,0 l/m 0 min 0 min 44 W/m 9,7 km/h (2 Bft) 97,87 %
15.12.2021 12:34 9,1 C 8,9 C 7,2 C 97 % 1031,9 hPa 0,0 l/m 0 min 0 min 40 W/m 16,1 km/h (3 Bft) 100,00 %
15.12.2021 12:36 9,1 C 8,9 C 7,2 C 97 % 1031,9 hPa 0,0 l/m 0 min 0 min 43 W/m 9,7 km/h (2 Bft) 97,83 %
15.12.2021 12:38 9,2 C 8,9 C 7,2 C 97 % 1031,8 hPa 0,0 l/m 0 min 0 min 40 W/m 6,4 km/h (2 Bft) 97,87 %
15.12.2021 12:40 9,2 C 8,9 C 7,2 C 97 % 1031,8 hPa 0,0 l/m 0 min 0 min 40 W/m 16,1 km/h (3 Bft) 97,87 %
15.12.2021 12:42 9,2 C 8,9 C 7,2 C 97 % 1031,7 hPa 0,0 l/m 0 min 0 min 43 W/m 12,9 km/h (3 Bft) 97,87 %
15.12.2021 12:44 9,2 C 8,9 C 7,2 C 97 % 1031,7 hPa 0,0 l/m 0 min 0 min 40 W/m 6,4 km/h (2 Bft) 97,87 %
15.12.2021 12:46 9,2 C 8,9 C 7,2 C 97 % 1031,7 hPa 0,0 l/m 0 min 0 min 44 W/m 12,9 km/h (3 Bft) 95,65 %
15.12.2021 12:48 9,2 C 8,9 C 7,2 C 97 % 1031,7 hPa 0,0 l/m 0 min 0 min 48 W/m 12,9 km/h (3 Bft) 97,87 %
15.12.2021 12:50 9,2 C 8,9 C 7,2 C 97 % 1031,7 hPa 0,0 l/m 0 min 0 min 43 W/m 16,1 km/h (3 Bft) 97,87 %
15.12.2021 12:52 9,2 C 8,9 C 7,2 C 97 % 1031,7 hPa 0,0 l/m 0 min 0 min 43 W/m 6,4 km/h (2 Bft) 97,87 %
15.12.2021 12:54 9,2 C 8,9 C 7,2 C 97 % 1031,7 hPa 0,0 l/m 0 min 0 min 45 W/m 9,7 km/h (2 Bft) 97,87 %
15.12.2021 12:56 9,2 C 8,9 C 7,2 C 97 % 1031,7 hPa 0,0 l/m 0 min 0 min 44 W/m 19,3 km/h (3 Bft) 97,87 %
15.12.2021 12:58 9,2 C 8,9 C 7,2 C 97 % 1031,8 hPa 0,0 l/m 0 min 0 min 48 W/m 16,1 km/h (3 Bft) 97,83 %
15.12.2021 13:00 9,2 C 8,9 C 7,2 C 97 % 1031,7 hPa 0,0 l/m 0 min 0 min 43 W/m 6,4 km/h (2 Bft) 97,87 %
15.12.2021 13:02 9,2 C 8,9 C 7,2 C 97 % 1031,7 hPa 0,0 l/m 0 min 0 min 42 W/m 12,9 km/h (3 Bft) 97,87 %
15.12.2021 13:04 9,2 C 8,9 C 7,2 C 97 % 1031,7 hPa 0,0 l/m 0 min 0 min 46 W/m 12,9 km/h (3 Bft) 97,87 %
15.12.2021 13:06 9,2 C 8,9 C 7,2 C 97 % 1031,7 hPa 0,0 l/m 0 min 0 min 49 W/m 12,9 km/h (3 Bft) 97,87 %
15.12.2021 13:08 9,2 C 8,9 C 7,2 C 97 % 1031,7 hPa 0,0 l/m 0 min 0 min 52 W/m 6,4 km/h (2 Bft) 74,14 %
15.12.2021 13:10 9,3 C 8,9 C 7,2 C 97 % 1031,7 hPa 0,0 l/m 0 min 0 min 49 W/m 12,9 km/h (3 Bft) 80,00 %
15.12.2021 13:12 9,3 C 8,9 C 7,2 C 97 % 1031,7 hPa 0,0 l/m 0 min 0 min 52 W/m 6,4 km/h (2 Bft) 100,00 %
15.12.2021 13:14 9,3 C 8,9 C 7,2 C 97 % 1031,7 hPa 0,0 l/m 0 min 0 min 54 W/m 9,7 km/h (2 Bft) 95,74 %
15.12.2021 13:16 9,3 C 8,9 C 7,2 C 97 % 1031,7 hPa 0,0 l/m 0 min 0 min 52 W/m 12,9 km/h (3 Bft) 100,00 %
15.12.2021 13:18 9,3 C 8,9 C 7,2 C 97 % 1031,7 hPa 0,0 l/m 0 min 0 min 52 W/m 6,4 km/h (2 Bft) 97,87 %
15.12.2021 13:20 9,3 C 8,9 C 7,2 C 97 % 1031,7 hPa 0,0 l/m 0 min 0 min 47 W/m 6,4 km/h (2 Bft) 100,00 %
15.12.2021 13:22 9,3 C 8,9 C 7,2 C 97 % 1031,7 hPa 0,0 l/m 0 min 0 min 41 W/m 6,4 km/h (2 Bft) 100,00 %
15.12.2021 13:24 9,3 C 8,9 C 7,2 C 97 % 1031,6 hPa 0,0 l/m 0 min 0 min 42 W/m 6,4 km/h (2 Bft) 100,00 %
15.12.2021 13:26 9,3 C 8,9 C 7,2 C 97 % 1031,7 hPa 0,0 l/m 0 min 0 min 45 W/m 12,9 km/h (3 Bft) 100,00 %
15.12.2021 13:28 9,3 C 8,9 C 7,2 C 97 % 1031,7 hPa 0,0 l/m 0 min 0 min 46 W/m 12,9 km/h (3 Bft) 97,87 %
15.12.2021 13:30 9,3 C 8,9 C 7,2 C 97 % 1031,7 hPa 0,0 l/m 0 min 0 min 43 W/m 9,7 km/h (2 Bft) 100,00 %
15.12.2021 13:32 9,4 C 8,9 C 7,2 C 97 % 1031,6 hPa 0,0 l/m 0 min 0 min 42 W/m 9,7 km/h (2 Bft) 100,00 %
15.12.2021 13:34 9,4 C 8,9 C 7,2 C 97 % 1031,6 hPa 0,0 l/m 0 min 0 min 41 W/m 6,4 km/h (2 Bft) 97,83 %
15.12.2021 13:36 9,4 C 8,9 C 7,8 C 97 % 1031,7 hPa 0,0 l/m 0 min 0 min 54 W/m 6,4 km/h (2 Bft) 100,00 %
15.12.2021 13:38 9,4 C 8,9 C 7,8 C 97 % 1031,6 hPa 0,0 l/m 0 min 0 min 50 W/m 12,9 km/h (3 Bft) 97,14 %
15.12.2021 13:40 9,4 C 8,9 C 7,8 C 97 % 1031,6 hPa 0,0 l/m 0 min 0 min 46 W/m 9,7 km/h (2 Bft) 97,87 %
15.12.2021 13:42 9,4 C 8,9 C 7,8 C 97 % 1031,6 hPa 0,0 l/m 0 min 0 min 48 W/m 12,9 km/h (3 Bft) 97,87 %
15.12.2021 13:44 9,4 C 8,9 C 7,8 C 97 % 1031,6 hPa 0,0 l/m 0 min 0 min 47 W/m 16,1 km/h (3 Bft) 97,83 %
15.12.2021 13:46 9,4 C 8,9 C 7,8 C 97 % 1031,6 hPa 0,0 l/m 0 min 0 min 45 W/m 9,7 km/h (2 Bft) 95,74 %
15.12.2021 13:48 9,4 C 8,9 C 7,8 C 97 % 1031,6 hPa 0,0 l/m 0 min 0 min 44 W/m 6,4 km/h (2 Bft) 95,74 %
15.12.2021 13:50 9,4 C 8,9 C 7,8 C 97 % 1031,5 hPa 0,0 l/m 0 min 0 min 41 W/m 16,1 km/h (3 Bft) 97,87 %
15.12.2021 13:52 9,4 C 8,9 C 7,8 C 97 % 1031,6 hPa 0,0 l/m 0 min 0 min 49 W/m 9,7 km/h (2 Bft) 97,87 %
15.12.2021 13:54 9,4 C 8,9 C 7,8 C 97 % 1031,5 hPa 0,0 l/m 0 min 0 min 49 W/m 16,1 km/h (3 Bft) 100,00 %
15.12.2021 13:56 9,4 C 8,9 C 7,8 C 97 % 1031,5 hPa 0,0 l/m 0 min 0 min 43 W/m 9,7 km/h (2 Bft) 97,83 %
15.12.2021 13:58 9,4 C 8,9 C 7,8 C 97 % 1031,5 hPa 0,0 l/m 0 min 0 min 38 W/m 6,4 km/h (2 Bft) 97,87 %
15.12.2021 14:00 9,4 C 8,9 C 7,8 C 97 % 1031,5 hPa 0,0 l/m 0 min 0 min 33 W/m 9,7 km/h (2 Bft) 97,87 %
15.12.2021 14:02 9,4 C 8,9 C 7,8 C 97 % 1031,5 hPa 0,0 l/m 0 min 0 min 34 W/m 6,4 km/h (2 Bft) 97,87 %
15.12.2021 14:04 9,4 C 8,9 C 7,8 C 97 % 1031,6 hPa 0,0 l/m 0 min 0 min 31 W/m 6,4 km/h (2 Bft) 93,62 %
15.12.2021 14:06 9,4 C 8,9 C 7,8 C 97 % 1031,6 hPa 0,0 l/m 0 min 0 min 28 W/m 12,9 km/h (3 Bft) 97,87 %
15.12.2021 14:08 9,4 C 8,9 C 7,8 C 97 % 1031,6 hPa 0,0 l/m 0 min 0 min 27 W/m 3,2 km/h (1 Bft) 93,48 %
15.12.2021 14:10 9,4 C 8,9 C 7,8 C 97 % 1031,6 hPa 0,0 l/m 0 min 0 min 28 W/m 19,3 km/h (3 Bft) 95,74 %
15.12.2021 14:12 9,4 C 8,9 C 7,8 C 97 % 1031,5 hPa 0,0 l/m 0 min 0 min 33 W/m 12,9 km/h (3 Bft) 95,74 %
15.12.2021 14:14 9,4 C 8,9 C 7,2 C 97 % 1031,6 hPa 0,0 l/m 0 min 0 min 34 W/m 16,1 km/h (3 Bft) 95,74 %
15.12.2021 14:16 9,4 C 8,9 C 7,2 C 97 % 1031,5 hPa 0,0 l/m 0 min 0 min 39 W/m 9,7 km/h (2 Bft) 95,74 %
15.12.2021 14:18 9,4 C 8,9 C 7,2 C 97 % 1031,6 hPa 0,0 l/m 0 min 0 min 34 W/m 12,9 km/h (3 Bft) 93,62 %
15.12.2021 14:20 9,4 C 8,9 C 7,2 C 97 % 1031,5 hPa 0,0 l/m 0 min 0 min 32 W/m 6,4 km/h (2 Bft) 95,65 %
15.12.2021 14:22 9,4 C 8,9 C 7,2 C 97 % 1031,5 hPa 0,0 l/m 0 min 0 min 34 W/m 9,7 km/h (2 Bft) 95,74 %
15.12.2021 14:24 9,4 C 8,9 C 7,2 C 97 % 1031,5 hPa 0,0 l/m 0 min 0 min 40 W/m 12,9 km/h (3 Bft) 93,62 %
15.12.2021 14:26 9,4 C 8,9 C 7,8 C 97 % 1031,5 hPa 0,0 l/m 0 min 0 min 44 W/m 19,3 km/h (3 Bft) 93,62 %
15.12.2021 14:28 9,4 C 8,9 C 7,8 C 97 % 1031,5 hPa 0,0 l/m 0 min 0 min 44 W/m 12,9 km/h (3 Bft) 97,87 %
15.12.2021 14:30 9,4 C 8,9 C 7,2 C 97 % 1031,4 hPa 0,0 l/m 0 min 0 min 46 W/m 6,4 km/h (2 Bft) 97,83 %
15.12.2021 14:32 9,4 C 8,9 C 7,8 C 97 % 1031,4 hPa 0,0 l/m 0 min 0 min 46 W/m 6,4 km/h (2 Bft) 95,74 %
15.12.2021 14:34 9,4 C 8,9 C 7,8 C 97 % 1031,5 hPa 0,0 l/m 0 min 0 min 47 W/m 12,9 km/h (3 Bft) 100,00 %
15.12.2021 14:36 9,4 C 8,9 C 7,8 C 97 % 1031,4 hPa 0,0 l/m 0 min 0 min 47 W/m 9,7 km/h (2 Bft) 97,87 %
15.12.2021 14:38 9,4 C 8,9 C 7,8 C 97 % 1031,4 hPa 0,0 l/m 0 min 0 min 45 W/m 3,2 km/h (1 Bft) 93,62 %
15.12.2021 14:40 9,4 C 8,9 C 7,8 C 97 % 1031,4 hPa 0,0 l/m 0 min 0 min 44 W/m 6,4 km/h (2 Bft) 95,92 %
15.12.2021 14:42 9,4 C 8,9 C 7,8 C 97 % 1031,4 hPa 0,0 l/m 0 min 0 min 45 W/m 12,9 km/h (3 Bft) 93,48 %
15.12.2021 14:44 9,4 C 8,9 C 7,8 C 97 % 1031,4 hPa 0,0 l/m 0 min 0 min 45 W/m 12,9 km/h (3 Bft) 95,74 %
15.12.2021 14:46 9,4 C 8,9 C 7,8 C 97 % 1031,4 hPa 0,0 l/m 0 min 0 min 47 W/m 6,4 km/h (2 Bft) 95,74 %
15.12.2021 14:48 9,4 C 8,9 C 7,8 C 97 % 1031,4 hPa 0,0 l/m 0 min 0 min 48 W/m 6,4 km/h (2 Bft) 93,62 %
15.12.2021 14:50 9,4 C 8,9 C 7,8 C 97 % 1031,4 hPa 0,0 l/m 0 min 0 min 49 W/m 12,9 km/h (3 Bft) 95,74 %
15.12.2021 14:52 9,4 C 9,4 C 7,8 C 97 % 1031,4 hPa 0,0 l/m 0 min 0 min 49 W/m 9,7 km/h (2 Bft) 95,74 %
15.12.2021 14:54 9,4 C 8,9 C 7,8 C 97 % 1031,4 hPa 0,0 l/m 0 min 0 min 47 W/m 6,4 km/h (2 Bft) 95,65 %
15.12.2021 14:56 9,4 C 8,9 C 7,8 C 97 % 1031,4 hPa 0,0 l/m 0 min 0 min 44 W/m 6,4 km/h (2 Bft) 97,87 %
15.12.2021 14:58 9,4 C 8,9 C 7,8 C 97 % 1031,3 hPa 0,0 l/m 0 min 0 min 43 W/m 12,9 km/h (3 Bft) 97,87 %
15.12.2021 15:00 9,4 C 8,9 C 7,8 C 97 % 1031,3 hPa 0,0 l/m 0 min 0 min 39 W/m 12,9 km/h (3 Bft) 97,87 %
15.12.2021 15:02 9,4 C 8,9 C 7,8 C 97 % 1031,3 hPa 0,0 l/m 0 min 0 min 34 W/m 16,1 km/h (3 Bft) 97,92 %
15.12.2021 15:04 9,4 C 8,9 C 7,8 C 97 % 1031,3 hPa 0,0 l/m 0 min 0 min 33 W/m 16,1 km/h (3 Bft) 95,74 %
15.12.2021 15:06 9,4 C 8,9 C 7,8 C 97 % 1031,4 hPa 0,0 l/m 0 min 0 min 31 W/m 16,1 km/h (3 Bft) 97,83 %
15.12.2021 15:08 9,4 C 8,9 C 7,8 C 97 % 1031,4 hPa 0,0 l/m 0 min 0 min 29 W/m 12,9 km/h (3 Bft) 97,96 %
15.12.2021 15:10 9,4 C 8,9 C 7,8 C 97 % 1031,3 hPa 0,0 l/m 0 min 0 min 27 W/m 12,9 km/h (3 Bft) 97,83 %
15.12.2021 15:12 9,4 C 8,9 C 7,8 C 97 % 1031,4 hPa 0,0 l/m 0 min 0 min 25 W/m 16,1 km/h (3 Bft) 97,87 %
15.12.2021 15:14 9,4 C 8,9 C 7,8 C 97 % 1031,3 hPa 0,0 l/m 0 min 0 min 24 W/m 16,1 km/h (3 Bft) 100,00 %
15.12.2021 15:16 9,4 C 8,9 C 7,8 C 97 % 1031,5 hPa 0,0 l/m 0 min 0 min 23 W/m 9,7 km/h (2 Bft) 100,00 %
15.12.2021 15:18 9,4 C 8,9 C 7,2 C 97 % 1031,5 hPa 0,0 l/m 0 min 0 min 22 W/m 12,9 km/h (3 Bft) 100,00 %
15.12.2021 15:20 9,4 C 8,9 C 7,2 C 97 % 1031,5 hPa 0,0 l/m 0 min 0 min 21 W/m 9,7 km/h (2 Bft) 100,00 %
15.12.2021 15:22 9,4 C 8,9 C 7,2 C 96 % 1031,5 hPa 0,0 l/m 0 min 0 min 19 W/m 16,1 km/h (3 Bft) 97,83 %
15.12.2021 15:24 9,4 C 8,9 C 7,2 C 96 % 1031,5 hPa 0,0 l/m 0 min 0 min 17 W/m 12,9 km/h (3 Bft) 100,00 %
15.12.2021 15:26 9,4 C 8,9 C 7,2 C 96 % 1031,5 hPa 0,0 l/m 0 min 0 min 15 W/m 12,9 km/h (3 Bft) 100,00 %
15.12.2021 15:28 9,4 C 8,9 C 7,2 C 96 % 1031,5 hPa 0,0 l/m 0 min 0 min 14 W/m 6,4 km/h (2 Bft) 97,87 %
15.12.2021 15:30 9,4 C 8,9 C 7,2 C 96 % 1031,6 hPa 0,0 l/m 0 min 0 min 13 W/m 6,4 km/h (2 Bft) 100,00 %
15.12.2021 15:32 9,4 C 8,9 C 7,2 C 96 % 1031,6 hPa 0,0 l/m 0 min 0 min 14 W/m 3,2 km/h (1 Bft) 100,00 %
15.12.2021 15:34 9,4 C 8,9 C 7,2 C 96 % 1031,6 hPa 0,0 l/m 0 min 0 min 14 W/m 3,2 km/h (1 Bft) 100,00 %
15.12.2021 15:36 9,4 C 8,9 C 7,2 C 96 % 1031,6 hPa 0,0 l/m 0 min 0 min 15 W/m 6,4 km/h (2 Bft) 100,00 %
15.12.2021 15:38 9,4 C 8,9 C 7,2 C 96 % 1031,6 hPa 0,0 l/m 0 min 0 min 16 W/m 6,4 km/h (2 Bft) 100,00 %
15.12.2021 15:40 9,4 C 8,9 C 7,2 C 96 % 1031,5 hPa 0,0 l/m 0 min 0 min 16 W/m 12,9 km/h (3 Bft) 100,00 %
15.12.2021 15:42 9,4 C 8,9 C 7,2 C 96 % 1031,5 hPa 0,0 l/m 0 min 0 min 14 W/m 16,1 km/h (3 Bft) 100,00 %
15.12.2021 15:44 9,4 C 8,9 C 7,2 C 96 % 1031,6 hPa 0,0 l/m 0 min 0 min 12 W/m 3,2 km/h (1 Bft) 100,00 %
15.12.2021 15:46 9,4 C 8,9 C 7,2 C 96 % 1031,6 hPa 0,0 l/m 0 min 0 min 12 W/m 12,9 km/h (3 Bft) 97,87 %
15.12.2021 15:48 9,4 C 8,9 C 7,2 C 96 % 1031,6 hPa 0,0 l/m 0 min 0 min 11 W/m 12,9 km/h (3 Bft) 100,00 %
15.12.2021 15:50 9,4 C 8,9 C 7,2 C 96 % 1031,6 hPa 0,0 l/m 0 min 0 min 11 W/m 6,4 km/h (2 Bft) 100,00 %
15.12.2021 15:52 9,4 C 8,9 C 7,2 C 96 % 1031,7 hPa 0,0 l/m 0 min 0 min 10 W/m 6,4 km/h (2 Bft) 100,00 %
15.12.2021 15:54 9,4 C 8,9 C 7,2 C 96 % 1031,6 hPa 0,0 l/m 0 min 0 min 9 W/m 16,1 km/h (3 Bft) 100,00 %
15.12.2021 15:56 9,4 C 8,9 C 7,2 C 96 % 1031,6 hPa 0,0 l/m 0 min 0 min 9 W/m 6,4 km/h (2 Bft) 100,00 %
15.12.2021 15:58 9,4 C 8,9 C 7,2 C 96 % 1031,7 hPa 0,0 l/m 0 min 0 min 7 W/m 12,9 km/h (3 Bft) 97,67 %
15.12.2021 16:00 9,3 C 8,9 C 7,2 C 96 % 1031,7 hPa 0,0 l/m 0 min 0 min 7 W/m 6,4 km/h (2 Bft) 100,00 %
15.12.2021 16:02 9,3 C 8,9 C 7,2 C 96 % 1031,7 hPa 0,0 l/m 0 min 0 min 7 W/m 6,4 km/h (2 Bft) 100,00 %
15.12.2021 16:04 9,3 C 8,9 C 7,2 C 96 % 1031,8 hPa 0,0 l/m 0 min 0 min 6 W/m 12,9 km/h (3 Bft) 100,00 %
15.12.2021 16:06 9,3 C 8,9 C 7,2 C 96 % 1031,8 hPa 0,0 l/m 0 min 0 min 5 W/m 6,4 km/h (2 Bft) 100,00 %
15.12.2021 16:08 9,3 C 8,9 C 7,2 C 96 % 1031,8 hPa 0,0 l/m 0 min 0 min 5 W/m 3,2 km/h (1 Bft) 100,00 %
15.12.2021 16:10 9,3 C 8,9 C 7,2 C 96 % 1031,8 hPa 0,0 l/m 0 min 0 min 5 W/m 6,4 km/h (2 Bft) 97,87 %
15.12.2021 16:12 9,3 C 8,9 C 7,2 C 96 % 1031,8 hPa 0,0 l/m 0 min 0 min 5 W/m 6,4 km/h (2 Bft) 100,00 %
15.12.2021 16:14 9,3 C 8,9 C 7,2 C 96 % 1031,8 hPa 0,0 l/m 0 min 0 min 0 W/m 6,4 km/h (2 Bft) 97,87 %
15.12.2021 16:16 9,3 C 8,9 C 7,2 C 96 % 1031,8 hPa 0,0 l/m 0 min 0 min 0 W/m 6,4 km/h (2 Bft) 97,83 %
15.12.2021 16:18 9,3 C 8,9 C 7,2 C 96 % 1031,9 hPa 0,0 l/m 0 min 0 min 0 W/m 6,4 km/h (2 Bft) 100,00 %
15.12.2021 16:20 9,3 C 8,9 C 7,2 C 96 % 1031,9 hPa 0,0 l/m 0 min 0 min 0 W/m 6,4 km/h (2 Bft) 100,00 %
15.12.2021 16:22 9,3 C 8,3 C 7,2 C 96 % 1031,9 hPa 0,0 l/m 0 min 0 min 0 W/m 3,2 km/h (1 Bft) 95,74 %
15.12.2021 16:24 9,3 C 8,3 C 7,2 C 96 % 1031,9 hPa 0,0 l/m 0 min 0 min 0 W/m 6,4 km/h (2 Bft) 97,87 %
15.12.2021 16:26 9,3 C 8,3 C 7,2 C 96 % 1031,9 hPa 0,0 l/m 0 min 0 min 0 W/m 6,4 km/h (2 Bft) 100,00 %
15.12.2021 16:28 9,3 C 8,3 C 7,2 C 96 % 1031,8 hPa 0,0 l/m 0 min 0 min 0 W/m 3,2 km/h (1 Bft) 100,00 %
15.12.2021 16:30 9,3 C 8,3 C 7,2 C 96 % 1031,9 hPa 0,0 l/m 0 min 0 min 0 W/m 3,2 km/h (1 Bft) 97,87 %
15.12.2021 16:32 9,3 C 8,3 C 7,2 C 96 % 1031,9 hPa 0,0 l/m 0 min 0 min 0 W/m 3,2 km/h (1 Bft) 93,75 %
15.12.2021 16:34 9,3 C 8,3 C 7,2 C 96 % 1032,0 hPa 0,0 l/m 0 min 0 min 0 W/m 6,4 km/h (2 Bft) 95,74 %
15.12.2021 16:36 9,3 C 8,3 C 7,2 C 96 % 1032,0 hPa 0,0 l/m 0 min 0 min 0 W/m 6,4 km/h (2 Bft) 97,87 %
15.12.2021 16:38 9,3 C 8,3 C 7,2 C 96 % 1032,0 hPa 0,0 l/m 0 min 0 min 0 W/m 3,2 km/h (1 Bft) 95,65 %
15.12.2021 16:40 9,3 C 8,3 C 7,2 C 96 % 1032,0 hPa 0,0 l/m 0 min 0 min 0 W/m 3,2 km/h (1 Bft) 95,74 %
15.12.2021 16:42 9,2 C 8,3 C 7,2 C 96 % 1032,1 hPa 0,0 l/m 0 min 0 min 0 W/m 3,2 km/h (1 Bft) 97,87 %
15.12.2021 16:44 9,2 C 8,3 C 7,2 C 96 % 1032,0 hPa 0,0 l/m 0 min 0 min 0 W/m 3,2 km/h (1 Bft) 93,62 %
15.12.2021 16:46 9,2 C 8,3 C 7,2 C 96 % 1032,0 hPa 0,0 l/m 0 min 0 min 0 W/m 3,2 km/h (1 Bft) 95,74 %
15.12.2021 16:48 9,2 C 8,3 C 7,2 C 96 % 1032,0 hPa 0,0 l/m 0 min 0 min 0 W/m 3,2 km/h (1 Bft) 33,33 %
15.12.2021 16:50 9,2 C 8,3 C 7,2 C 96 % 1032,0 hPa 0,0 l/m 0 min 0 min 0 W/m 6,4 km/h (2 Bft) 93,48 %
15.12.2021 16:52 9,2 C 8,3 C 7,2 C 96 % 1032,0 hPa 0,0 l/m 0 min 0 min 0 W/m 3,2 km/h (1 Bft) 93,62 %
15.12.2021 16:54 9,2 C 8,3 C 7,2 C 96 % 1032,1 hPa 0,0 l/m 0 min 0 min 0 W/m 3,2 km/h (1 Bft) 95,74 %
15.12.2021 16:56 9,2 C 8,3 C 7,2 C 96 % 1032,1 hPa 0,0 l/m 0 min 0 min 0 W/m 6,4 km/h (2 Bft) 93,62 %
15.12.2021 16:58 9,2 C 8,3 C 7,2 C 96 % 1032,1 hPa 0,0 l/m 0 min 0 min 0 W/m 6,4 km/h (2 Bft) 95,74 %
15.12.2021 17:00 9,2 C 8,3 C 7,2 C 96 % 1032,2 hPa 0,0 l/m 0 min 0 min 0 W/m 6,4 km/h (2 Bft) 91,49 %
15.12.2021 17:02 9,2 C 8,3 C 7,2 C 96 % 1032,2 hPa 0,0 l/m 0 min 0 min 0 W/m 6,4 km/h (2 Bft) 95,65 %
15.12.2021 17:04 9,2 C 8,3 C 7,2 C 96 % 1032,1 hPa 0,0 l/m 0 min 0 min 0 W/m 6,4 km/h (2 Bft) 91,49 %
15.12.2021 17:06 9,2 C 8,3 C 7,2 C 96 % 1032,2 hPa 0,0 l/m 0 min 0 min 0 W/m 6,4 km/h (2 Bft) 91,49 %
15.12.2021 17:08 9,2 C 8,3 C 7,2 C 96 % 1032,1 hPa 0,0 l/m 0 min 0 min 0 W/m 6,4 km/h (2 Bft) 93,62 %
15.12.2021 17:10 9,2 C 8,3 C 7,2 C 96 % 1032,1 hPa 0,0 l/m 0 min 0 min 0 W/m 6,4 km/h (2 Bft) 93,62 %
15.12.2021 17:12 9,2 C 8,3 C 7,2 C 96 % 1032,1 hPa 0,0 l/m 0 min 0 min 0 W/m 6,4 km/h (2 Bft) 95,74 %
15.12.2021 17:14 9,1 C 8,3 C 7,2 C 96 % 1032,2 hPa 0,0 l/m 0 min 0 min 0 W/m 6,4 km/h (2 Bft) 97,83 %
15.12.2021 17:16 9,2 C 8,3 C 7,2 C 96 % 1032,3 hPa 0,0 l/m 0 min 0 min 0 W/m 6,4 km/h (2 Bft) 97,87 %
15.12.2021 17:18 9,2 C 8,3 C 7,2 C 96 % 1032,3 hPa 0,0 l/m 0 min 0 min 0 W/m 3,2 km/h (1 Bft) 95,74 %
15.12.2021 17:20 9,1 C 8,3 C 7,2 C 96 % 1032,3 hPa 0,0 l/m 0 min 0 min 0 W/m 3,2 km/h (1 Bft) 97,87 %
15.12.2021 17:22 9,1 C 8,3 C 7,2 C 96 % 1032,3 hPa 0,0 l/m 0 min 0 min 0 W/m 12,9 km/h (3 Bft) 95,74 %
15.12.2021 17:24 9,1 C 8,3 C 7,2 C 96 % 1032,3 hPa 0,0 l/m 0 min 0 min 0 W/m 6,4 km/h (2 Bft) 97,83 %
15.12.2021 17:26 9,1 C 8,3 C 7,2 C 96 % 1032,3 hPa 0,0 l/m 0 min 0 min 0 W/m 6,4 km/h (2 Bft) 95,74 %
15.12.2021 17:28 9,1 C 8,3 C 7,2 C 96 % 1032,3 hPa 0,0 l/m 0 min 0 min 0 W/m 6,4 km/h (2 Bft) 97,87 %
15.12.2021 17:30 9,1 C 8,3 C 7,2 C 96 % 1032,3 hPa 0,0 l/m 0 min 0 min 0 W/m 6,4 km/h (2 Bft) 97,87 %
15.12.2021 17:32 9,1 C 8,3 C 7,2 C 96 % 1032,3 hPa 0,0 l/m 0 min 0 min 0 W/m 3,2 km/h (1 Bft) 93,62 %
15.12.2021 17:34 9,1 C 8,3 C 7,2 C 96 % 1032,4 hPa 0,0 l/m 0 min 0 min 0 W/m 3,2 km/h (1 Bft) 97,87 %
15.12.2021 17:36 9,1 C 8,3 C 7,2 C 96 % 1032,4 hPa 0,0 l/m 0 min 0 min 0 W/m 9,7 km/h (2 Bft) 95,65 %
15.12.2021 17:38 9,1 C 8,3 C 7,2 C 96 % 1032,4 hPa 0,0 l/m 0 min 0 min 0 W/m 6,4 km/h (2 Bft) 97,87 %
15.12.2021 17:40 9,1 C 8,3 C 7,2 C 96 % 1032,5 hPa 0,0 l/m 0 min 0 min 0 W/m 6,4 km/h (2 Bft) 97,87 %
15.12.2021 17:42 9,1 C 8,3 C 7,2 C 96 % 1032,6 hPa 0,0 l/m 0 min 0 min 0 W/m 12,9 km/h (3 Bft) 97,87 %
15.12.2021 17:44 9,1 C 8,3 C 7,2 C 96 % 1032,6 hPa 0,0 l/m 0 min 0 min 0 W/m 3,2 km/h (1 Bft) 97,87 %
15.12.2021 17:46 9,1 C 8,3 C 7,2 C 96 % 1032,6 hPa 0,0 l/m 0 min 0 min 0 W/m 3,2 km/h (1 Bft) 97,87 %
15.12.2021 17:48 9,1 C 8,3 C 7,2 C 96 % 1032,7 hPa 0,0 l/m 0 min 0 min 0 W/m 6,4 km/h (2 Bft) 100,00 %
15.12.2021 17:50 9,1 C 8,3 C 7,2 C 96 % 1032,6 hPa 0,0 l/m 0 min 0 min 0 W/m 3,2 km/h (1 Bft) 100,00 %
15.12.2021 17:52 9,1 C 8,3 C 7,2 C 96 % 1032,7 hPa 0,0 l/m 0 min 0 min 0 W/m 3,2 km/h (1 Bft) 100,00 %
15.12.2021 17:54 9,1 C 8,3 C 7,2 C 96 % 1032,7 hPa 0,0 l/m 0 min 0 min 0 W/m 6,4 km/h (2 Bft) 93,62 %
15.12.2021 17:56 9,1 C 8,3 C 7,2 C 96 % 1032,7 hPa 0,0 l/m 0 min 0 min 0 W/m 6,4 km/h (2 Bft) 100,00 %
15.12.2021 17:58 9,1 C 8,3 C 7,2 C 96 % 1032,7 hPa 0,0 l/m 0 min 0 min 0 W/m 3,2 km/h (1 Bft) 97,87 %
15.12.2021 18:00 9,1 C 8,3 C 7,2 C 96 % 1032,8 hPa 0,0 l/m 0 min 0 min 0 W/m 3,2 km/h (1 Bft) 100,00 %
15.12.2021 18:02 9,1 C 8,3 C 7,2 C 96 % 1032,7 hPa 0,0 l/m 0 min 0 min 0 W/m 6,4 km/h (2 Bft) 97,87 %
15.12.2021 18:04 9,1 C 8,3 C 7,2 C 96 % 1032,8 hPa 0,0 l/m 0 min 0 min 0 W/m 9,7 km/h (2 Bft) 100,00 %
15.12.2021 18:08 9,1 C 8,3 C 7,2 C 96 % 1032,7 hPa 0,0 l/m 0 min 0 min 0 W/m 3,2 km/h (1 Bft) 100,00 %
15.12.2021 18:10 9,1 C 8,3 C 7,2 C 96 % 1032,7 hPa 0,0 l/m 0 min 0 min 0 W/m 6,4 km/h (2 Bft) 100,00 %
15.12.2021 18:12 9,1 C 8,3 C 6,7 C 96 % 1032,7 hPa 0,0 l/m 0 min 0 min 0 W/m 3,2 km/h (1 Bft) 100,00 %
15.12.2021 18:14 9,1 C 8,3 C 6,7 C 96 % 1032,7 hPa 0,0 l/m 0 min 0 min 0 W/m 6,4 km/h (2 Bft) 100,00 %
15.12.2021 18:16 9,1 C 8,3 C 6,7 C 96 % 1032,7 hPa 0,0 l/m 0 min 0 min 0 W/m 3,2 km/h (1 Bft) 100,00 %
15.12.2021 18:18 9,1 C 8,3 C 6,7 C 96 % 1032,7 hPa 0,0 l/m 0 min 0 min 0 W/m 6,4 km/h (2 Bft) 100,00 %
15.12.2021 18:20 9,1 C 8,3 C 6,7 C 96 % 1032,7 hPa 0,0 l/m 0 min 0 min 0 W/m 12,9 km/h (3 Bft) 100,00 %
15.12.2021 18:22 9,1 C 8,3 C 6,7 C 96 % 1032,8 hPa 0,0 l/m 0 min 0 min 0 W/m 6,4 km/h (2 Bft) 97,87 %
15.12.2021 18:24 9,1 C 8,3 C 6,7 C 96 % 1032,8 hPa 0,0 l/m 0 min 0 min 0 W/m 3,2 km/h (1 Bft) 100,00 %
15.12.2021 18:26 9,1 C 8,3 C 6,7 C 96 % 1032,8 hPa 0,0 l/m 0 min 0 min 0 W/m 3,2 km/h (1 Bft) 100,00 %
15.12.2021 18:28 9,1 C 8,3 C 6,7 C 96 % 1032,8 hPa 0,0 l/m 0 min 0 min 0 W/m 6,4 km/h (2 Bft) 97,87 %
15.12.2021 18:30 9,1 C 8,3 C 6,7 C 96 % 1032,7 hPa 0,0 l/m 0 min 0 min 0 W/m 6,4 km/h (2 Bft) 100,00 %
15.12.2021 18:32 9,1 C 8,3 C 6,7 C 96 % 1032,7 hPa 0,0 l/m 0 min 0 min 0 W/m 3,2 km/h (1 Bft) 100,00 %
15.12.2021 18:34 9,1 C 8,3 C 6,7 C 96 % 1032,8 hPa 0,0 l/m 0 min 0 min 0 W/m 6,4 km/h (2 Bft) 97,83 %
15.12.2021 18:36 9,1 C 8,3 C 6,7 C 96 % 1032,8 hPa 0,0 l/m 0 min 0 min 0 W/m 3,2 km/h (1 Bft) 97,87 %
15.12.2021 18:38 9,1 C 8,3 C 6,7 C 96 % 1032,8 hPa 0,0 l/m 0 min 0 min 0 W/m 6,4 km/h (2 Bft) 97,87 %
15.12.2021 18:40 9,1 C 8,3 C 6,7 C 96 % 1032,8 hPa 0,0 l/m 0 min 0 min 0 W/m 6,4 km/h (2 Bft) 97,87 %
15.12.2021 18:42 9,1 C 8,3 C 6,7 C 96 % 1032,8 hPa 0,0 l/m 0 min 0 min 0 W/m 6,4 km/h (2 Bft) 97,87 %
15.12.2021 18:44 9,1 C 8,3 C 6,7 C 96 % 1032,8 hPa 0,0 l/m 0 min 0 min 0 W/m 6,4 km/h (2 Bft) 95,74 %
15.12.2021 18:46 9,1 C 8,3 C 6,7 C 96 % 1032,9 hPa 0,0 l/m 0 min 0 min 0 W/m 9,7 km/h (2 Bft) 95,65 %
15.12.2021 18:48 9,1 C 8,3 C 6,7 C 96 % 1032,9 hPa 0,0 l/m 0 min 0 min 0 W/m 6,4 km/h (2 Bft) 97,87 %
15.12.2021 18:50 9,1 C 8,3 C 6,7 C 96 % 1032,8 hPa 0,0 l/m 0 min 0 min 0 W/m 6,4 km/h (2 Bft) 95,74 %
15.12.2021 18:52 9,1 C 8,3 C 6,7 C 96 % 1032,8 hPa 0,0 l/m 0 min 0 min 0 W/m 6,4 km/h (2 Bft) 97,87 %
15.12.2021 18:54 9,1 C 8,3 C 6,7 C 96 % 1032,9 hPa 0,0 l/m 0 min 0 min 0 W/m 6,4 km/h (2 Bft) 97,87 %
15.12.2021 18:56 9,1 C 8,3 C 7,2 C 96 % 1032,9 hPa 0,0 l/m 0 min 0 min 0 W/m 12,9 km/h (3 Bft) 97,87 %
15.12.2021 18:58 9,1 C 8,3 C 7,2 C 96 % 1032,9 hPa 0,0 l/m 0 min 0 min 0 W/m 12,9 km/h (3 Bft) 97,83 %
15.12.2021 19:00 9,1 C 8,3 C 7,2 C 97 % 1032,9 hPa 0,0 l/m 0 min 0 min 0 W/m 12,9 km/h (3 Bft) 95,74 %
15.12.2021 19:02 9,1 C 8,3 C 7,2 C 97 % 1033,0 hPa 0,0 l/m 0 min 0 min 0 W/m 6,4 km/h (2 Bft) 97,87 %
15.12.2021 19:04 9,1 C 8,3 C 7,2 C 97 % 1033,1 hPa 0,0 l/m 0 min 0 min 0 W/m 6,4 km/h (2 Bft) 97,87 %
15.12.2021 19:06 9,1 C 8,3 C 7,2 C 97 % 1033,0 hPa 0,0 l/m 0 min 0 min 0 W/m 3,2 km/h (1 Bft) 95,74 %
15.12.2021 19:08 9,1 C 8,3 C 7,2 C 97 % 1032,9 hPa 0,0 l/m 0 min 0 min 0 W/m 6,4 km/h (2 Bft) 97,83 %
15.12.2021 19:10 9,2 C 8,9 C 7,2 C 97 % 1032,9 hPa 0,0 l/m 0 min 0 min 0 W/m 6,4 km/h (2 Bft) 95,74 %
15.12.2021 19:12 9,2 C 8,9 C 7,2 C 97 % 1032,9 hPa 0,0 l/m 0 min 0 min 0 W/m 6,4 km/h (2 Bft) 97,87 %
15.12.2021 19:14 9,2 C 8,9 C 7,2 C 97 % 1033,0 hPa 0,0 l/m 0 min 0 min 0 W/m 6,4 km/h (2 Bft) 95,74 %
15.12.2021 19:16 9,2 C 8,9 C 7,2 C 97 % 1033,1 hPa 0,0 l/m 0 min 0 min 0 W/m 9,7 km/h (2 Bft) 100,00 %
15.12.2021 19:18 9,2 C 8,9 C 7,2 C 96 % 1033,1 hPa 0,0 l/m 0 min 0 min 0 W/m 3,2 km/h (1 Bft) 95,74 %
15.12.2021 19:20 9,2 C 8,9 C 7,2 C 96 % 1033,1 hPa 0,0 l/m 0 min 0 min 0 W/m 6,4 km/h (2 Bft) 97,87 %
15.12.2021 19:22 9,2 C 8,9 C 7,2 C 96 % 1033,2 hPa 0,0 l/m 0 min 0 min 0 W/m 6,4 km/h (2 Bft) 97,83 %
15.12.2021 19:24 9,2 C 8,9 C 7,2 C 96 % 1033,2 hPa 0,0 l/m 0 min 0 min 0 W/m 3,2 km/h (1 Bft) 95,74 %
15.12.2021 19:26 9,2 C 8,9 C 7,2 C 96 % 1033,2 hPa 0,0 l/m 0 min 0 min 0 W/m 6,4 km/h (2 Bft) 97,87 %
15.12.2021 19:28 9,2 C 8,3 C 7,2 C 96 % 1033,1 hPa 0,0 l/m 0 min 0 min 0 W/m 6,4 km/h (2 Bft) 97,87 %
15.12.2021 19:30 9,2 C 8,3 C 7,2 C 96 % 1033,1 hPa 0,0 l/m 0 min 0 min 0 W/m 6,4 km/h (2 Bft) 97,87 %
15.12.2021 19:32 9,2 C 8,3 C 7,2 C 96 % 1033,2 hPa 0,0 l/m 0 min 0 min 0 W/m 6,4 km/h (2 Bft) 97,83 %
15.12.2021 19:34 9,2 C 8,3 C 7,2 C 96 % 1033,2 hPa 0,0 l/m 0 min 0 min 0 W/m 3,2 km/h (1 Bft) 97,87 %
15.12.2021 19:36 9,2 C 8,3 C 7,2 C 96 % 1033,2 hPa 0,0 l/m 0 min 0 min 0 W/m 3,2 km/h (1 Bft) 97,87 %
15.12.2021 19:38 9,2 C 8,3 C 7,2 C 96 % 1033,1 hPa 0,0 l/m 0 min 0 min 0 W/m 6,4 km/h (2 Bft) 97,87 %
15.12.2021 19:40 9,2 C 8,3 C 7,2 C 96 % 1033,1 hPa 0,0 l/m 0 min 0 min 0 W/m 9,7 km/h (2 Bft) 97,87 %
15.12.2021 19:42 9,2 C 8,3 C 7,2 C 96 % 1033,2 hPa 0,0 l/m 0 min 0 min 0 W/m 6,4 km/h (2 Bft) 97,87 %
15.12.2021 19:44 9,2 C 8,3 C 7,2 C 96 % 1033,2 hPa 0,0 l/m 0 min 0 min 0 W/m 6,4 km/h (2 Bft) 97,83 %
15.12.2021 19:46 9,2 C 8,3 C 7,2 C 96 % 1033,1 hPa 0,0 l/m 0 min 0 min 0 W/m 3,2 km/h (1 Bft) 95,74 %
15.12.2021 19:48 9,2 C 8,3 C 7,2 C 96 % 1033,1 hPa 0,0 l/m 0 min 0 min 0 W/m 6,4 km/h (2 Bft) 97,87 %
15.12.2021 19:50 9,2 C 8,3 C 7,2 C 96 % 1033,2 hPa 0,0 l/m 0 min 0 min 0 W/m 6,4 km/h (2 Bft) 97,87 %
15.12.2021 19:52 9,2 C 8,3 C 7,2 C 96 % 1033,2 hPa 0,0 l/m 0 min 0 min 0 W/m 3,2 km/h (1 Bft) 95,74 %
15.12.2021 19:54 9,2 C 8,3 C 7,2 C 96 % 1033,2 hPa 0,0 l/m 0 min 0 min 0 W/m 6,4 km/h (2 Bft) 97,87 %
15.12.2021 19:56 9,2 C 8,3 C 7,2 C 96 % 1033,2 hPa 0,0 l/m 0 min 0 min 0 W/m 6,4 km/h (2 Bft) 97,83 %
15.12.2021 19:58 9,2 C 8,3 C 7,2 C 96 % 1033,3 hPa 0,0 l/m 0 min 0 min 0 W/m 6,4 km/h (2 Bft) 97,87 %
15.12.2021 20:00 9,2 C 8,3 C 7,2 C 96 % 1033,2 hPa 0,0 l/m 0 min 0 min 0 W/m 16,1 km/h (3 Bft) 97,87 %
15.12.2021 20:02 9,2 C 8,3 C 7,2 C 96 % 1033,2 hPa 0,0 l/m 0 min 0 min 0 W/m 9,7 km/h (2 Bft) 97,92 %
15.12.2021 20:04 9,2 C 8,3 C 7,2 C 96 % 1033,3 hPa 0,0 l/m 0 min 0 min 0 W/m 3,2 km/h (1 Bft) 93,62 %
15.12.2021 20:06 9,2 C 8,3 C 7,2 C 96 % 1033,3 hPa 0,0 l/m 0 min 0 min 0 W/m 6,4 km/h (2 Bft) 97,83 %
15.12.2021 20:08 9,2 C 8,3 C 7,2 C 96 % 1033,2 hPa 0,0 l/m 0 min 0 min 0 W/m 9,7 km/h (2 Bft) 93,62 %
15.12.2021 20:10 9,2 C 8,3 C 7,2 C 96 % 1033,3 hPa 0,0 l/m 0 min 0 min 0 W/m 6,4 km/h (2 Bft) 59,09 %
15.12.2021 20:12 9,2 C 8,3 C 7,2 C 96 % 1033,5 hPa 0,0 l/m 0 min 0 min 0 W/m 3,2 km/h (1 Bft) 95,74 %
15.12.2021 20:14 9,2 C 8,3 C 7,2 C 96 % 1033,4 hPa 0,0 l/m 0 min 0 min 0 W/m 6,4 km/h (2 Bft) 97,87 %
15.12.2021 20:16 9,2 C 8,3 C 7,2 C 96 % 1033,3 hPa 0,0 l/m 0 min 0 min 0 W/m 6,4 km/h (2 Bft) 97,87 %
15.12.2021 20:18 9,2 C 8,3 C 7,2 C 96 % 1033,3 hPa 0,0 l/m 0 min 0 min 0 W/m 9,7 km/h (2 Bft) 95,65 %
15.12.2021 20:20 9,2 C 8,3 C 7,2 C 96 % 1033,5 hPa 0,0 l/m 0 min 0 min 0 W/m 6,4 km/h (2 Bft) 97,87 %
15.12.2021 20:22 9,2 C 8,3 C 7,2 C 96 % 1033,4 hPa 0,0 l/m 0 min 0 min 0 W/m 12,9 km/h (3 Bft) 97,87 %
15.12.2021 20:24 9,2 C 8,3 C 7,2 C 96 % 1033,4 hPa 0,0 l/m 0 min 0 min 0 W/m 9,7 km/h (2 Bft) 97,87 %
15.12.2021 20:26 9,2 C 8,3 C 7,2 C 96 % 1033,5 hPa 0,0 l/m 0 min 0 min 0 W/m 3,2 km/h (1 Bft) 93,62 %
15.12.2021 20:28 9,2 C 8,3 C 7,2 C 96 % 1033,5 hPa 0,0 l/m 0 min 0 min 0 W/m 12,9 km/h (3 Bft) 95,74 %
15.12.2021 20:30 9,2 C 8,3 C 7,2 C 96 % 1033,4 hPa 0,0 l/m 0 min 0 min 0 W/m 6,4 km/h (2 Bft) 97,83 %
15.12.2021 20:32 9,2 C 8,3 C 6,7 C 96 % 1033,4 hPa 0,0 l/m 0 min 0 min 0 W/m 6,4 km/h (2 Bft) 95,74 %
15.12.2021 20:34 9,2 C 8,3 C 7,2 C 96 % 1033,5 hPa 0,0 l/m 0 min 0 min 0 W/m 6,4 km/h (2 Bft) 95,74 %
15.12.2021 20:36 9,1 C 8,3 C 7,2 C 96 % 1033,5 hPa 0,0 l/m 0 min 0 min 0 W/m 9,7 km/h (2 Bft) 95,74 %
15.12.2021 20:38 9,2 C 8,3 C 7,2 C 96 % 1033,4 hPa 0,0 l/m 0 min 0 min 0 W/m 3,2 km/h (1 Bft) 95,74 %
15.12.2021 20:40 9,2 C 8,3 C 7,2 C 96 % 1033,4 hPa 0,0 l/m 0 min 0 min 0 W/m 3,2 km/h (1 Bft) 95,74 %
15.12.2021 20:42 9,2 C 8,3 C 7,2 C 96 % 1033,6 hPa 0,0 l/m 0 min 0 min 0 W/m 6,4 km/h (2 Bft) 95,65 %
15.12.2021 20:44 9,2 C 8,3 C 7,2 C 96 % 1033,7 hPa 0,0 l/m 0 min 0 min 0 W/m 6,4 km/h (2 Bft) 97,87 %
15.12.2021 20:46 9,2 C 8,3 C 7,2 C 96 % 1033,6 hPa 0,0 l/m 0 min 0 min 0 W/m 6,4 km/h (2 Bft) 93,62 %
15.12.2021 20:48 9,2 C 8,3 C 6,7 C 96 % 1033,6 hPa 0,0 l/m 0 min 0 min 0 W/m 16,1 km/h (3 Bft) 97,87 %
15.12.2021 20:50 9,2 C 8,3 C 7,2 C 96 % 1033,7 hPa 0,0 l/m 0 min 0 min 0 W/m 6,4 km/h (2 Bft) 97,87 %
15.12.2021 20:52 9,2 C 8,3 C 7,2 C 96 % 1033,7 hPa 0,0 l/m 0 min 0 min 0 W/m 6,4 km/h (2 Bft) 95,74 %
15.12.2021 20:54 9,2 C 8,3 C 7,2 C 96 % 1033,6 hPa 0,0 l/m 0 min 0 min 0 W/m 6,4 km/h (2 Bft) 95,65 %
15.12.2021 20:56 9,1 C 8,3 C 7,2 C 96 % 1033,6 hPa 0,0 l/m 0 min 0 min 0 W/m 3,2 km/h (1 Bft) 97,87 %
15.12.2021 20:58 9,1 C 8,3 C 6,7 C 96 % 1033,7 hPa 0,0 l/m 0 min 0 min 0 W/m 3,2 km/h (1 Bft) 97,87 %
15.12.2021 21:00 9,1 C 8,3 C 6,7 C 96 % 1033,6 hPa 0,0 l/m 0 min 0 min 0 W/m 9,7 km/h (2 Bft) 97,87 %
15.12.2021 21:02 9,1 C 8,3 C 6,7 C 96 % 1033,6 hPa 0,0 l/m 0 min 0 min 0 W/m 6,4 km/h (2 Bft) 97,87 %
15.12.2021 21:04 9,1 C 8,3 C 6,7 C 96 % 1033,7 hPa 0,0 l/m 0 min 0 min 0 W/m 3,2 km/h (1 Bft) 100,00 %
15.12.2021 21:06 9,1 C 8,3 C 6,7 C 96 % 1033,6 hPa 0,0 l/m 0 min 0 min 0 W/m 3,2 km/h (1 Bft) 100,00 %
15.12.2021 21:08 9,1 C 8,3 C 6,7 C 96 % 1033,5 hPa 0,0 l/m 0 min 0 min 0 W/m 6,4 km/h (2 Bft) 100,00 %
15.12.2021 21:10 9,1 C 8,3 C 6,7 C 96 % 1033,6 hPa 0,0 l/m 0 min 0 min 0 W/m 3,2 km/h (1 Bft) 100,00 %
15.12.2021 21:12 9,1 C 8,3 C 6,7 C 96 % 1033,6 hPa 0,0 l/m 0 min 0 min 0 W/m 6,4 km/h (2 Bft) 100,00 %
15.12.2021 21:14 9,1 C 8,3 C 6,7 C 96 % 1033,6 hPa 0,0 l/m 0 min 0 min 0 W/m 3,2 km/h (1 Bft) 97,87 %
15.12.2021 21:16 9,1 C 8,3 C 6,7 C 96 % 1033,6 hPa 0,0 l/m 0 min 0 min 0 W/m 6,4 km/h (2 Bft) 100,00 %
15.12.2021 21:18 9,1 C 8,3 C 6,7 C 96 % 1033,6 hPa 0,0 l/m 0 min 0 min 0 W/m 3,2 km/h (1 Bft) 97,87 %
15.12.2021 21:20 9,1 C 8,3 C 6,7 C 96 % 1033,7 hPa 0,0 l/m 0 min 0 min 0 W/m 3,2 km/h (1 Bft) 100,00 %
15.12.2021 21:22 9,1 C 8,3 C 6,7 C 96 % 1033,7 hPa 0,0 l/m 0 min 0 min 0 W/m 6,4 km/h (2 Bft) 97,87 %
15.12.2021 21:24 9,1 C 8,3 C 6,7 C 96 % 1033,7 hPa 0,0 l/m 0 min 0 min 0 W/m 3,2 km/h (1 Bft) 95,74 %
15.12.2021 21:26 9,1 C 8,3 C 6,7 C 96 % 1033,7 hPa 0,0 l/m 0 min 0 min 0 W/m 3,2 km/h (1 Bft) 100,00 %
15.12.2021 21:28 9,1 C 8,3 C 6,7 C 96 % 1033,7 hPa 0,0 l/m 0 min 0 min 0 W/m 6,4 km/h (2 Bft) 97,83 %
15.12.2021 21:30 9,1 C 8,3 C 6,7 C 96 % 1033,8 hPa 0,0 l/m 0 min 0 min 0 W/m 3,2 km/h (1 Bft) 100,00 %
15.12.2021 21:32 9,1 C 8,3 C 6,7 C 97 % 1033,7 hPa 0,0 l/m 0 min 0 min 0 W/m 6,4 km/h (2 Bft) 100,00 %
15.12.2021 21:34 9,1 C 8,3 C 6,7 C 97 % 1033,8 hPa 0,0 l/m 0 min 0 min 0 W/m 3,2 km/h (1 Bft) 100,00 %
15.12.2021 21:36 9,1 C 8,3 C 6,7 C 97 % 1033,8 hPa 0,0 l/m 0 min 0 min 0 W/m 3,2 km/h (1 Bft) 97,87 %
15.12.2021 21:38 9,1 C 8,3 C 6,7 C 97 % 1033,8 hPa 0,0 l/m 0 min 0 min 0 W/m 6,4 km/h (2 Bft) 100,00 %
15.12.2021 21:40 9,1 C 8,3 C 6,7 C 97 % 1033,8 hPa 0,0 l/m 0 min 0 min 0 W/m 6,4 km/h (2 Bft) 100,00 %
15.12.2021 21:42 9,0 C 8,3 C 6,7 C 97 % 1033,9 hPa 0,0 l/m 0 min 0 min 0 W/m 6,4 km/h (2 Bft) 100,00 %
15.12.2021 21:44 9,0 C 8,3 C 6,7 C 96 % 1033,9 hPa 0,0 l/m 0 min 0 min 0 W/m 3,2 km/h (1 Bft) 100,00 %
15.12.2021 21:46 9,0 C 8,3 C 6,7 C 96 % 1033,9 hPa 0,0 l/m 0 min 0 min 0 W/m 3,2 km/h (1 Bft) 97,87 %
15.12.2021 21:48 9,0 C 8,3 C 6,7 C 96 % 1033,9 hPa 0,0 l/m 0 min 0 min 0 W/m 3,2 km/h (1 Bft) 97,87 %
15.12.2021 21:50 9,0 C 8,3 C 6,7 C 96 % 1033,9 hPa 0,0 l/m 0 min 0 min 0 W/m 3,2 km/h (1 Bft) 95,74 %
15.12.2021 21:52 9,0 C 8,3 C 6,7 C 96 % 1033,8 hPa 0,0 l/m 0 min 0 min 0 W/m 3,2 km/h (1 Bft) 97,83 %
15.12.2021 21:54 9,0 C 8,3 C 6,7 C 96 % 1033,8 hPa 0,0 l/m 0 min 0 min 0 W/m 6,4 km/h (2 Bft) 97,87 %
15.12.2021 21:56 9,0 C 8,3 C 6,7 C 96 % 1033,8 hPa 0,0 l/m 0 min 0 min 0 W/m 6,4 km/h (2 Bft) 93,62 %
15.12.2021 21:58 9,0 C 8,3 C 6,7 C 96 % 1033,7 hPa 0,0 l/m 0 min 0 min 0 W/m 3,2 km/h (1 Bft) 97,87 %
15.12.2021 22:00 9,0 C 8,3 C 6,7 C 96 % 1033,7 hPa 0,0 l/m 0 min 0 min 0 W/m 6,4 km/h (2 Bft) 95,74 %
15.12.2021 22:02 9,0 C 8,3 C 6,7 C 96 % 1033,7 hPa 0,0 l/m 0 min 0 min 0 W/m 3,2 km/h (1 Bft) 95,74 %
15.12.2021 22:04 8,9 C 8,3 C 6,7 C 96 % 1033,8 hPa 0,0 l/m 0 min 0 min 0 W/m 3,2 km/h (1 Bft) 95,74 %
15.12.2021 22:06 8,9 C 8,3 C 6,7 C 96 % 1033,8 hPa 0,0 l/m 0 min 0 min 0 W/m 3,2 km/h (1 Bft) 97,87 %
15.12.2021 22:08 8,9 C 8,3 C 6,7 C 96 % 1033,7 hPa 0,0 l/m 0 min 0 min 0 W/m 6,4 km/h (2 Bft) 97,87 %
15.12.2021 22:10 8,9 C 8,3 C 6,7 C 96 % 1033,8 hPa 0,0 l/m 0 min 0 min 0 W/m 3,2 km/h (1 Bft) 97,87 %
15.12.2021 22:12 8,9 C 8,3 C 6,7 C 96 % 1033,8 hPa 0,0 l/m 0 min 0 min 0 W/m 3,2 km/h (1 Bft) 97,87 %
15.12.2021 22:14 8,9 C 8,3 C 6,7 C 96 % 1033,7 hPa 0,0 l/m 0 min 0 min 0 W/m 3,2 km/h (1 Bft) 97,83 %
15.12.2021 22:16 8,9 C 8,3 C 6,7 C 96 % 1033,8 hPa 0,0 l/m 0 min 0 min 0 W/m 6,4 km/h (2 Bft) 95,74 %
15.12.2021 22:18 8,9 C 8,3 C 6,7 C 97 % 1033,8 hPa 0,0 l/m 0 min 0 min 0 W/m 3,2 km/h (1 Bft) 97,87 %
15.12.2021 22:20 8,9 C 8,3 C 6,7 C 97 % 1033,8 hPa 0,0 l/m 0 min 0 min 0 W/m 3,2 km/h (1 Bft) 97,87 %
15.12.2021 22:22 8,9 C 8,3 C 6,7 C 97 % 1033,8 hPa 0,0 l/m 0 min 0 min 0 W/m 3,2 km/h (1 Bft) 97,87 %
15.12.2021 22:24 8,9 C 8,3 C 6,7 C 97 % 1033,8 hPa 0,0 l/m 0 min 0 min 0 W/m 3,2 km/h (1 Bft) 100,00 %
15.12.2021 22:26 8,9 C 8,3 C 6,7 C 97 % 1033,8 hPa 0,0 l/m 0 min 0 min 0 W/m 0,0 km/h (0 Bft) 95,65 %
15.12.2021 22:28 8,9 C 8,3 C 6,7 C 97 % 1033,8 hPa 0,0 l/m 0 min 0 min 0 W/m 6,4 km/h (2 Bft) 95,74 %
15.12.2021 22:30 8,9 C 8,3 C 6,7 C 97 % 1033,8 hPa 0,0 l/m 0 min 0 min 0 W/m 3,2 km/h (1 Bft) 95,74 %
15.12.2021 22:32 8,9 C 8,3 C 6,7 C 97 % 1033,8 hPa 0,0 l/m 0 min 0 min 0 W/m 3,2 km/h (1 Bft) 97,87 %
15.12.2021 22:34 8,9 C 8,3 C 6,7 C 97 % 1033,8 hPa 0,0 l/m 0 min 0 min 0 W/m 6,4 km/h (2 Bft) 97,87 %
15.12.2021 22:36 8,9 C 8,3 C 6,7 C 97 % 1033,8 hPa 0,0 l/m 0 min 0 min 0 W/m 3,2 km/h (1 Bft) 95,74 %
15.12.2021 22:38 8,9 C 8,3 C 6,7 C 97 % 1033,8 hPa 0,0 l/m 0 min 0 min 0 W/m 6,4 km/h (2 Bft) 97,83 %
15.12.2021 22:40 8,9 C 8,3 C 6,7 C 97 % 1033,8 hPa 0,0 l/m 0 min 0 min 0 W/m 3,2 km/h (1 Bft) 100,00 %
15.12.2021 22:42 8,9 C 8,3 C 6,7 C 97 % 1033,9 hPa 0,0 l/m 0 min 0 min 0 W/m 0,0 km/h (0 Bft) 95,74 %
15.12.2021 22:44 8,9 C 8,3 C 6,7 C 97 % 1033,9 hPa 0,0 l/m 0 min 0 min 0 W/m 3,2 km/h (1 Bft) 97,87 %
15.12.2021 22:46 8,9 C 8,3 C 6,7 C 97 % 1033,9 hPa 0,0 l/m 0 min 0 min 0 W/m 3,2 km/h (1 Bft) 97,87 %
15.12.2021 22:48 8,9 C 8,3 C 6,7 C 97 % 1033,8 hPa 0,0 l/m 0 min 0 min 0 W/m 3,2 km/h (1 Bft) 97,87 %
15.12.2021 22:50 8,9 C 8,3 C 6,7 C 97 % 1033,9 hPa 0,0 l/m 0 min 0 min 0 W/m 0,0 km/h (0 Bft) 97,83 %
15.12.2021 22:52 8,9 C 8,3 C 6,7 C 97 % 1033,9 hPa 0,0 l/m 0 min 0 min 0 W/m 3,2 km/h (1 Bft) 95,74 %
15.12.2021 22:54 8,9 C 8,3 C 6,7 C 97 % 1033,9 hPa 0,0 l/m 0 min 0 min 0 W/m 0,0 km/h (0 Bft) 95,74 %
15.12.2021 22:56 8,9 C 8,3 C 6,7 C 97 % 1033,9 hPa 0,0 l/m 0 min 0 min 0 W/m 0,0 km/h (0 Bft) 95,74 %
15.12.2021 22:58 8,8 C 8,3 C 6,7 C 97 % 1033,8 hPa 0,0 l/m 0 min 0 min 0 W/m 0,0 km/h (0 Bft) 95,74 %
15.12.2021 23:00 8,8 C 8,3 C 6,7 C 97 % 1033,8 hPa 0,0 l/m 0 min 0 min 0 W/m 3,2 km/h (1 Bft) 97,83 %
15.12.2021 23:02 8,8 C 8,3 C 6,7 C 97 % 1033,8 hPa 0,0 l/m 0 min 0 min 0 W/m 3,2 km/h (1 Bft) 95,83 %
15.12.2021 23:04 8,8 C 8,3 C 6,7 C 97 % 1033,8 hPa 0,0 l/m 0 min 0 min 0 W/m 3,2 km/h (1 Bft) 97,87 %
15.12.2021 23:06 8,8 C 8,3 C 6,7 C 97 % 1033,8 hPa 0,0 l/m 0 min 0 min 0 W/m 0,0 km/h (0 Bft) 100,00 %
15.12.2021 23:08 8,8 C 8,3 C 6,7 C 97 % 1033,9 hPa 0,0 l/m 0 min 0 min 0 W/m 3,2 km/h (1 Bft) 97,87 %
15.12.2021 23:10 8,8 C 8,3 C 6,7 C 97 % 1033,9 hPa 0,0 l/m 0 min 0 min 0 W/m 3,2 km/h (1 Bft) 97,87 %
15.12.2021 23:12 8,8 C 8,3 C 6,7 C 97 % 1033,9 hPa 0,0 l/m 0 min 0 min 0 W/m 3,2 km/h (1 Bft) 97,83 %
15.12.2021 23:14 8,8 C 8,3 C 6,7 C 97 % 1033,8 hPa 0,0 l/m 0 min 0 min 0 W/m 3,2 km/h (1 Bft) 97,87 %
15.12.2021 23:16 8,8 C 8,3 C 6,7 C 97 % 1033,8 hPa 0,0 l/m 0 min 0 min 0 W/m 3,2 km/h (1 Bft) 95,74 %
15.12.2021 23:18 8,8 C 8,3 C 6,7 C 97 % 1033,9 hPa 0,0 l/m 0 min 0 min 0 W/m 6,4 km/h (2 Bft) 97,87 %
15.12.2021 23:20 8,8 C 8,3 C 6,7 C 97 % 1033,9 hPa 0,0 l/m 0 min 0 min 0 W/m 6,4 km/h (2 Bft) 97,87 %
15.12.2021 23:22 8,8 C 8,3 C 6,7 C 97 % 1033,9 hPa 0,0 l/m 0 min 0 min 0 W/m 3,2 km/h (1 Bft) 95,74 %
15.12.2021 23:24 8,8 C 8,3 C 6,7 C 97 % 1034,0 hPa 0,0 l/m 0 min 0 min 0 W/m 3,2 km/h (1 Bft) 97,83 %
15.12.2021 23:26 8,8 C 8,3 C 6,7 C 97 % 1033,9 hPa 0,0 l/m 0 min 0 min 0 W/m 3,2 km/h (1 Bft) 76,60 %
15.12.2021 23:28 8,8 C 8,3 C 6,7 C 97 % 1033,9 hPa 0,0 l/m 0 min 0 min 0 W/m 3,2 km/h (1 Bft) 75,00 %
15.12.2021 23:30 8,8 C 8,3 C 6,7 C 97 % 1034,0 hPa 0,0 l/m 0 min 0 min 0 W/m 3,2 km/h (1 Bft) 97,87 %
15.12.2021 23:32 8,8 C 8,3 C 6,7 C 97 % 1033,9 hPa 0,0 l/m 0 min 0 min 0 W/m 0,0 km/h (0 Bft) 97,87 %
15.12.2021 23:34 8,8 C 8,3 C 6,7 C 97 % 1034,0 hPa 0,0 l/m 0 min 0 min 0 W/m 3,2 km/h (1 Bft) 97,87 %
15.12.2021 23:36 8,8 C 8,3 C 6,7 C 97 % 1034,0 hPa 0,0 l/m 0 min 0 min 0 W/m 3,2 km/h (1 Bft) 97,83 %
15.12.2021 23:38 8,8 C 8,3 C 6,7 C 97 % 1034,1 hPa 0,0 l/m 0 min 0 min 0 W/m 3,2 km/h (1 Bft) 97,87 %
15.12.2021 23:40 8,8 C 8,3 C 6,7 C 97 % 1034,0 hPa 0,0 l/m 0 min 0 min 0 W/m 6,4 km/h (2 Bft) 97,87 %
15.12.2021 23:42 8,8 C 8,3 C 6,7 C 97 % 1034,1 hPa 0,0 l/m 0 min 0 min 0 W/m 3,2 km/h (1 Bft) 97,87 %
15.12.2021 23:44 8,8 C 8,3 C 6,7 C 97 % 1034,1 hPa 0,0 l/m 0 min 0 min 0 W/m 3,2 km/h (1 Bft) 95,74 %
15.12.2021 23:46 8,8 C 8,3 C 6,7 C 97 % 1034,0 hPa 0,0 l/m 0 min 0 min 0 W/m 3,2 km/h (1 Bft) 100,00 %
15.12.2021 23:48 8,8 C 8,3 C 6,7 C 97 % 1034,1 hPa 0,0 l/m 0 min 0 min 0 W/m 3,2 km/h (1 Bft) 100,00 %
15.12.2021 23:50 8,8 C 8,3 C 6,7 C 97 % 1034,1 hPa 0,0 l/m 0 min 0 min 0 W/m 6,4 km/h (2 Bft) 100,00 %
15.12.2021 23:52 8,8 C 8,3 C 6,7 C 97 % 1034,1 hPa 0,0 l/m 0 min 0 min 0 W/m 6,4 km/h (2 Bft) 100,00 %
15.12.2021 23:54 8,8 C 8,3 C 6,7 C 97 % 1034,1 hPa 0,0 l/m 0 min 0 min 0 W/m 3,2 km/h (1 Bft) 97,87 %
15.12.2021 23:56 8,8 C 8,3 C 6,7 C 97 % 1034,1 hPa 0,0 l/m 0 min 0 min 0 W/m 0,0 km/h (0 Bft) 100,00 %
15.12.2021 23:58 8,8 C 8,3 C 6,7 C 97 % 1034,2 hPa 0,0 l/m 0 min 0 min 0 W/m 6,4 km/h (2 Bft) 100,00 %
_ Min-Zeit 05:20 02:54 03:02 01:30 00:02 - - - - 22:26 16:48
Minimum _ 8,3 C 7,8 C 5,6 C 92 % 1029,8 hPa - - - - 0,0 km/h (0 Bft) 33,33 %
_ Max-Zeit 13:32 14:52 13:36 05:50 23:58 00:00 00:00 03:36 13:14 10:08 00:08
Maximum _ 9,4 C 9,4 C 7,8 C 98 % 1034,2 hPa 0,0 l/m 0 min 2 min 54 W/m 29,0 km/h
S-SO (5 Bft)
100,00 %
Durchschnitt _ 8,9 C 8,3 C 6,7 C 96 % 1031,7 hPa #0,0 l/m #0 min. #2 min. 30 W/m 10,0 km/h (2 Bft) 97,14 %
© 2021 W. Hausmann